GEFSCGP_850_meantemp_090.txt.gz
Temperature
23 23 23 24 24 25 25 24 24 24 24 23 24 25 25 24 23 23 23 23 22 22 21 20 18 18 17 17 16 15 15 14 13 13 13 13 13 13 12 12 12 12 12 12
23 23 24 25 24 24 24 24 25 25 24 24 24 25 26 25 24 24 24 23 23 22 21 19 18 18 17 17 16 15 15 14 13 13 13 12 12 12 12 12 12 12 12 12
24 24 24 24 23 24 24 24 25 24 24 24 24 25 26 26 24 23 22 23 23 22 21 20 19 18 17 17 16 15 15 14 13 13 12 12 12 12 12 12 12 12 12 12
24 24 23 24 24 24 24 24 24 24 24 25 24 24 26 26 24 24 23 22 22 21 21 20 19 18 17 17 16 15 15 14 13 13 13 13 12 13 12 12 12 12 12 11
24 24 24 24 24 24 24 23 24 24 24 24 25 24 26 25 25 25 24 23 22 21 20 20 19 18 18 17 16 15 15 14 13 13 13 12 13 12 12 12 12 12 12 11
23 23 24 24 24 23 23 23 23 24 24 24 25 24 25 26 26 26 25 23 22 21 20 19 19 18 17 17 16 16 15 14 14 13 13 12 12 12 12 12 12 12 12 11
23 23 23 23 23 23 23 24 24 24 24 24 24 23 25 26 25 25 24 24 22 21 20 19 19 18 18 17 16 16 15 14 14 13 13 13 12 12 12 12 12 12 12 12
24 24 24 24 25 24 24 25 24 23 24 25 24 24 26 26 24 23 22 22 22 21 20 19 19 19 18 17 17 16 15 15 14 14 13 13 12 12 12 12 12 12 12 12
25 24 24 24 24 25 24 25 25 25 24 23 25 25 26 25 24 24 23 22 22 21 20 19 19 19 18 17 17 16 15 15 14 14 13 13 13 12 12 12 12 12 12 11
26 24 24 23 24 23 25 25 24 24 23 23 24 24 25 26 26 25 24 23 22 21 20 19 19 19 18 18 17 16 16 15 15 14 14 13 13 13 12 12 12 12 12 12
25 25 24 24 24 25 23 24 24 24 24 23 23 25 26 26 25 25 25 24 23 21 20 20 19 19 18 17 17 16 16 15 15 14 14 13 13 13 13 12 12 12 12 12
25 25 25 25 24 23 24 25 24 24 24 23 23 24 27 25 25 24 24 24 22 21 21 20 19 19 18 18 17 16 16 15 15 15 14 14 14 13 13 13 13 12 12 12
24 25 24 24 24 23 23 24 24 24 24 24 23 24 26 25 25 24 23 23 22 21 20 20 19 19 18 18 17 17 16 16 15 15 14 14 14 14 13 13 13 13 13 12
23 25 25 24 24 25 24 23 23 23 23 24 24 25 26 26 26 25 24 23 22 21 21 20 19 19 18 18 17 17 16 16 15 15 15 14 14 14 14 13 13 13 13 13
24 25 25 25 25 24 24 24 23 23 24 24 25 25 26 26 26 26 24 23 22 21 21 20 20 19 19 18 18 17 17 16 16 15 15 15 14 14 14 14 14 14 14 13
24 24 24 24 24 24 23 24 24 23 23 24 24 24 26 26 25 25 24 23 22 22 21 21 20 20 19 19 18 18 17 16 16 16 15 15 15 15 15 14 14 14 14 14
24 24 23 24 24 23 23 25 24 24 24 24 24 25 26 26 25 24 24 23 23 22 22 21 21 20 20 19 19 18 17 17 16 16 15 15 15 15 15 15 15 15 14 14
23 23 23 23 23 22 25 25 24 24 24 25 24 24 25 25 24 23 23 23 23 22 22 21 21 20 20 20 19 18 18 17 16 16 16 16 16 16 15 15 15 15 14 14
21 22 22 22 22 23 24 25 23 23 24 25 24 24 24 23 23 24 23 22 22 22 22 21 21 21 20 20 19 18 18 17 17 16 16 16 16 16 16 15 15 15 15 15
19 21 22 22 21 22 24 24 23 23 23 24 24 23 23 23 24 26 24 22 22 22 22 21 21 21 20 20 19 18 18 17 17 17 16 16 16 16 16 16 15 15 15 15
20 20 20 21 21 23 24 22 22 22 23 22 22 22 22 22 23 23 22 21 21 22 22 22 21 21 20 19 19 18 18 18 17 17 16 16 16 16 16 16 15 15 14 14
22 21 21 21 21 22 22 21 22 23 22 21 21 21 21 21 21 21 21 21 21 21 22 22 21 21 20 20 19 18 18 18 17 17 17 17 16 16 16 15 15 14 14 14
21 21 21 22 22 22 20 20 20 19 20 20 20 20 19 20 20 20 20 20 20 21 21 21 21 20 20 20 19 18 18 18 17 17 17 17 16 16 15 15 14 14 14 13
20 19 19 20 21 21 19 19 19 18 18 18 18 18 19 19 19 19 19 20 20 20 21 21 21 20 20 20 19 18 18 18 17 17 17 16 15 15 15 15 14 13 13 13
18 18 18 19 20 20 19 18 18 17 17 17 17 18 18 18 18 19 19 19 19 20 20 20 20 20 20 20 19 19 18 18 17 16 16 16 15 15 14 14 14 13 13 13
17 17 17 18 18 18 18 17 16 16 16 16 16 16 17 17 17 18 18 18 19 19 20 20 20 20 19 19 19 19 18 18 17 16 16 15 15 15 14 14 14 13 13 12

GEFSCGP_850_meantemp_096.txt.gz
Temperature
23 23 23 23 24 25 25 24 24 25 26 26 26 26 26 27 26 26 26 26 25 25 24 23 22 21 21 20 19 19 18 17 16 16 15 15 15 15 15 14 14 13 13 13
24 23 25 26 25 25 24 24 24 26 26 26 26 26 27 27 27 27 27 27 26 26 25 23 22 21 20 20 19 19 18 17 16 16 15 15 15 15 15 14 14 13 13 13
24 25 26 26 26 25 25 25 24 25 26 26 26 26 27 28 28 27 27 27 27 26 25 23 22 21 20 20 19 19 18 17 16 15 15 15 15 15 14 14 14 13 13 13
25 26 26 26 25 25 24 25 26 25 25 24 26 25 27 28 27 27 27 26 26 26 25 24 22 21 20 20 19 18 17 17 16 15 15 15 15 15 14 14 14 14 13 13
24 25 25 25 26 26 25 26 26 26 25 25 26 26 27 27 27 27 27 26 26 26 25 24 23 22 21 20 19 18 17 17 16 15 15 15 14 14 14 14 14 14 14 13
25 26 26 26 27 27 26 26 26 26 25 24 26 26 26 27 27 27 27 27 26 25 25 24 23 21 21 20 19 18 17 16 16 15 15 15 14 14 14 14 14 14 14 14
25 26 27 27 26 26 26 25 24 24 24 24 27 26 26 27 28 28 27 27 26 25 24 23 22 21 20 19 18 18 17 16 16 15 15 15 15 14 14 14 14 14 14 14
25 25 26 27 26 26 26 26 24 22 23 25 26 26 27 28 28 27 27 26 26 25 24 23 22 21 20 19 18 17 17 16 16 15 15 15 15 15 15 14 14 14 14 14
26 26 27 28 28 27 26 26 27 25 25 25 26 27 27 27 27 27 27 26 25 25 24 23 22 21 20 19 18 18 17 16 16 16 15 15 15 15 15 14 14 14 14 14
27 26 27 27 27 27 27 27 26 25 24 23 25 26 26 26 27 27 27 26 26 25 24 23 22 21 20 19 18 18 17 17 16 16 16 15 15 15 15 14 14 14 14 14
28 26 26 26 26 26 26 26 26 26 25 24 23 24 27 27 27 27 27 27 26 25 24 23 22 21 20 19 18 18 17 17 16 16 16 16 15 15 15 14 14 14 14 14
27 27 26 26 28 28 27 27 26 24 24 24 23 25 28 27 27 27 27 27 26 25 24 23 22 21 20 20 19 18 18 17 17 16 16 16 15 15 15 15 14 14 14 14
26 26 25 25 25 26 26 26 26 26 25 24 23 25 28 28 27 27 27 27 26 25 24 23 22 21 21 20 19 19 18 18 17 16 16 16 15 15 15 15 15 14 14 14
25 25 25 24 25 26 26 26 26 25 24 24 24 25 27 27 26 27 27 27 26 25 25 24 23 22 21 20 19 19 18 18 17 17 16 16 16 15 15 15 15 14 14 14
26 25 26 26 27 27 26 26 26 26 25 25 25 25 26 26 26 27 27 27 26 26 25 24 23 22 21 20 20 19 19 18 17 17 16 16 16 16 15 15 15 15 15 14
26 25 25 25 26 27 26 27 26 26 26 26 25 25 26 27 27 26 26 26 26 25 25 24 23 22 21 20 20 19 19 18 17 17 17 16 16 16 16 15 15 15 15 15
25 25 24 24 25 26 25 26 27 26 26 26 25 25 26 26 26 26 26 25 25 25 24 24 24 23 22 21 20 20 19 18 18 17 17 17 16 16 16 15 15 15 15 15
24 24 24 24 24 23 25 28 27 26 26 26 26 25 25 25 26 25 25 25 24 24 24 24 23 23 23 22 21 20 20 19 18 17 17 17 16 16 16 15 15 15 15 15
25 24 23 23 22 23 25 26 27 26 25 26 25 25 25 25 25 25 24 24 24 24 24 23 23 23 23 23 22 21 20 19 18 18 18 17 17 16 16 16 16 16 15 15
25 25 23 23 22 22 24 26 26 25 23 25 24 24 24 24 23 23 23 23 23 23 23 23 23 23 23 23 22 22 21 20 19 18 18 17 17 16 16 16 16 15 15 15
24 23 22 22 22 23 24 25 25 23 22 23 23 22 22 22 22 22 22 22 22 22 22 22 22 22 23 23 22 22 21 20 19 19 18 17 17 17 16 16 16 15 15 15
23 22 22 22 22 22 23 23 22 22 22 22 21 21 21 20 21 21 21 21 21 21 21 21 21 21 22 22 22 21 21 21 20 19 18 18 17 17 16 16 16 15 15 15
23 23 22 22 22 23 22 22 21 21 21 20 20 19 19 19 19 20 20 20 20 21 21 21 21 21 21 21 21 21 21 20 20 19 18 18 17 17 16 16 16 15 15 15
21 22 21 21 22 22 21 21 20 19 19 19 18 18 18 18 18 18 19 19 19 20 20 20 20 20 20 20 20 20 20 20 20 19 18 18 17 16 16 16 15 15 15 15
19 19 19 19 20 20 20 19 18 18 17 17 17 17 17 17 17 17 17 18 18 18 19 19 19 19 19 19 19 20 20 19 19 18 18 17 17 16 16 16 15 15 15 15
18 18 18 18 19 18 18 17 17 16 16 16 16 16 16 16 16 16 16 17 17 17 18 18 18 19 19 19 19 19 19 19 18 18 17 17 16 16 16 16 15 15 15 14

GEFSCGP_850_meantemp_102.txt.gz
Temperature
19 17 17 18 18 20 20 20 20 20 21 21 21 21 21 22 22 22 22 22 23 23 23 22 22 21 21 20 20 19 18 18 17 16 16 15 15 14 14 14 14 14 13 13
18 18 19 20 20 20 20 20 20 21 22 22 21 21 21 21 22 23 23 23 23 23 22 22 22 21 21 20 20 19 18 18 17 16 16 15 15 14 14 14 14 13 13 13
19 20 21 21 20 20 20 20 21 21 22 22 21 20 21 21 22 23 24 24 23 23 22 22 21 21 21 20 20 19 19 18 17 16 16 15 15 14 14 14 14 13 13 13
20 21 22 21 21 21 20 21 22 22 21 19 21 19 20 20 21 22 23 23 23 23 23 22 22 21 21 21 20 19 19 18 17 17 16 15 15 14 14 14 14 13 13 13
20 21 21 21 22 22 21 22 22 22 21 19 20 20 19 20 22 22 22 23 24 24 23 23 22 22 21 21 20 19 19 18 17 17 16 15 15 14 14 14 14 13 13 13
21 22 22 22 23 23 23 21 20 18 18 19 20 20 20 19 22 22 22 23 24 24 23 23 22 22 21 20 20 19 19 18 17 17 16 15 15 14 14 14 14 14 13 13
22 22 23 23 23 23 21 19 18 18 17 18 19 20 20 21 22 23 23 24 24 24 23 23 22 21 21 20 20 19 19 18 17 17 16 15 15 15 14 14 14 14 13 13
21 20 22 23 22 22 21 19 18 19 18 18 19 20 20 22 23 24 25 25 24 24 24 23 23 22 21 21 20 19 19 18 18 17 16 16 15 15 14 14 14 14 14 13
20 21 23 23 24 23 22 20 19 18 19 18 19 21 22 23 23 23 24 24 24 24 24 23 23 22 22 21 20 20 19 18 18 17 16 16 15 15 14 14 14 14 14 14
22 22 23 24 24 24 23 21 18 18 19 18 19 20 20 22 22 22 22 23 24 24 24 23 23 22 22 21 21 20 19 19 18 17 16 16 15 15 15 14 14 14 14 14
22 21 22 23 23 23 23 22 19 16 17 18 18 19 20 21 21 21 22 24 24 24 24 24 23 23 22 21 21 20 19 19 18 17 17 16 15 15 15 14 14 14 14 14
21 18 19 21 22 23 22 22 19 19 19 17 17 18 21 20 21 22 23 25 25 25 24 24 23 23 22 21 21 20 19 19 18 18 17 16 16 15 15 15 14 14 14 14
20 19 19 19 20 21 23 23 20 18 17 17 17 19 20 20 21 23 23 24 24 24 24 24 23 22 22 21 21 20 20 19 18 18 17 16 16 15 15 15 15 14 14 14
20 18 18 19 20 20 21 22 22 19 17 18 18 19 20 20 20 21 22 23 23 23 23 23 23 22 22 22 21 21 20 19 19 18 17 17 16 16 15 15 15 14 14 14
19 19 20 20 20 21 22 21 21 20 19 18 19 19 19 19 20 20 21 22 22 22 22 22 22 22 22 21 21 21 20 20 19 18 18 17 17 16 15 15 15 15 14 14
17 19 19 20 20 20 21 21 21 20 20 19 19 19 19 20 20 20 21 21 21 21 21 21 22 21 21 21 21 21 20 20 19 18 18 18 17 16 16 15 15 15 15 15
17 18 18 17 18 19 19 20 21 20 19 19 18 18 18 18 19 19 20 20 20 20 21 21 21 21 21 21 21 21 21 20 19 19 18 18 17 17 16 16 15 15 15 15
17 16 15 16 18 19 19 19 20 19 19 18 18 18 18 18 19 19 19 19 20 20 20 21 21 21 21 21 21 21 20 20 19 19 19 18 17 17 16 16 16 16 15 15
15 16 15 15 17 18 18 19 20 19 18 17 17 17 18 19 19 18 19 19 19 19 20 20 20 21 21 21 21 20 20 20 19 19 19 18 18 17 17 16 16 16 16 15
15 15 15 15 17 17 18 19 20 18 16 17 17 16 17 17 15 16 18 18 18 19 19 20 20 20 20 20 20 20 20 19 19 19 19 19 18 18 17 17 16 16 16 15
16 15 15 15 15 16 17 18 18 17 15 16 16 16 16 15 15 16 17 17 18 18 18 19 19 19 19 19 19 19 19 19 19 19 19 19 18 18 18 17 17 16 16 15
15 15 14 14 15 15 16 17 16 15 16 16 16 16 16 16 16 16 16 17 17 17 17 17 18 18 18 18 19 19 19 19 19 19 19 19 18 18 18 17 17 16 16 15
14 14 13 14 14 15 16 16 16 16 15 15 15 15 15 15 15 15 15 15 16 16 16 16 16 17 17 18 18 18 18 18 18 19 18 18 18 18 18 17 17 16 16 15
13 14 13 13 14 14 15 15 15 15 15 15 15 15 15 14 14 14 14 14 14 15 15 15 15 16 16 17 17 17 17 18 18 18 18 18 18 18 18 17 17 17 16 16
12 13 12 12 12 14 14 14 14 14 14 14 14 14 14 14 14 13 13 13 13 13 14 14 14 14 15 15 16 16 16 17 17 17 17 17 18 18 17 17 17 17 17 16
11 12 12 12 13 12 13 14 14 14 13 13 13 13 13 13 13 13 12 12 12 12 12 12 13 13 13 14 15 15 15 16 16 16 16 17 17 17 17 17 17 17 16 16

GEFSCGP_850_meantemp_108.txt.gz
Temperature
17 16 16 17 18 19 19 19 19 20 20 20 19 19 20 20 20 20 20 21 21 22 22 22 21 21 20 20 20 19 18 18 17 17 16 16 15 15 14 14 13 13 13 13
17 17 18 18 19 19 19 19 19 19 20 20 19 19 19 19 20 20 21 21 22 22 22 22 22 21 21 20 20 19 19 18 17 17 16 16 15 15 14 14 13 13 13 13
18 18 19 19 19 19 19 19 19 20 20 19 20 19 19 20 20 21 21 22 22 22 22 22 22 21 21 21 20 20 19 18 17 17 16 16 15 15 14 14 13 13 13 13
18 19 19 19 19 19 19 20 20 20 19 18 19 18 19 18 19 20 21 22 22 22 22 23 22 22 21 21 20 20 19 18 18 17 16 16 15 15 14 14 14 13 13 13
19 19 19 19 20 19 19 20 19 19 19 18 18 18 18 18 20 20 20 22 23 23 23 23 23 22 22 21 20 20 19 18 18 17 17 16 15 15 14 14 14 13 13 13
19 19 20 20 20 20 20 19 18 16 16 18 18 18 18 18 20 20 20 22 23 23 23 23 23 22 21 21 20 20 19 19 18 17 17 16 16 15 14 14 14 13 13 13
20 20 20 20 20 20 19 18 17 17 17 17 18 18 18 19 19 19 20 22 23 23 23 23 23 22 22 21 21 20 19 19 18 18 17 16 16 15 15 14 14 14 13 13
20 19 21 21 21 20 19 18 17 18 18 17 17 18 18 19 20 21 21 22 23 23 23 23 23 22 22 21 21 20 20 19 18 18 17 16 16 15 15 14 14 14 13 13
19 20 21 21 21 19 19 17 17 16 17 17 17 18 19 20 20 20 21 22 23 23 23 23 23 22 22 22 21 20 20 19 19 18 17 17 16 15 15 15 14 14 14 13
19 20 21 21 21 20 19 16 15 16 17 17 18 18 18 20 19 19 18 20 22 22 23 23 22 22 22 21 21 20 20 19 19 18 17 17 16 16 15 15 14 14 14 13
20 19 20 21 21 21 19 18 15 14 15 16 18 18 18 18 18 17 17 19 20 21 22 22 22 22 22 21 20 20 19 19 18 18 17 17 16 16 15 15 15 14 14 14
18 17 18 20 20 20 20 19 16 17 17 15 16 16 18 17 17 17 18 19 20 21 21 22 22 22 21 21 20 20 19 19 19 18 18 17 17 16 16 15 15 14 14 14
18 17 18 19 19 19 20 19 17 15 14 14 15 17 17 16 17 17 17 18 19 20 21 21 21 21 21 20 20 20 19 19 19 18 18 17 17 16 16 16 15 15 14 14
17 17 18 18 18 19 20 20 17 16 15 15 15 17 17 16 15 16 17 18 19 19 19 20 20 20 20 20 20 20 19 19 19 18 18 18 17 17 16 16 15 15 14 14
17 18 19 18 19 19 19 19 18 17 16 16 17 16 16 15 15 16 16 17 18 18 18 19 19 19 19 20 20 19 19 19 19 18 18 18 17 17 16 16 16 15 15 14
15 17 18 19 18 18 18 18 18 17 17 16 16 16 15 15 15 15 16 16 17 17 17 18 18 19 19 19 19 19 19 19 18 18 18 18 17 17 17 16 16 15 15 15
14 16 17 17 17 18 18 18 17 16 15 15 15 15 14 14 14 15 15 16 16 16 17 17 17 18 18 18 19 19 19 18 18 18 18 18 17 17 17 16 16 16 15 15
14 14 13 15 17 18 17 16 16 15 15 14 15 14 14 14 15 15 15 15 15 16 16 16 17 17 17 18 18 18 18 18 18 18 18 17 17 17 17 16 16 16 16 15
12 13 12 13 16 16 16 16 16 16 15 14 14 14 15 15 15 15 15 15 15 15 15 16 16 16 17 17 17 17 17 17 17 17 17 17 17 17 17 16 16 16 16 16
11 12 12 13 16 16 16 16 16 15 15 14 14 14 14 14 12 13 14 14 15 15 15 15 15 16 16 16 16 16 16 16 16 16 16 16 16 16 16 16 16 16 16 16
13 12 12 12 14 14 15 15 15 15 15 14 14 14 14 13 13 14 14 14 14 14 14 14 15 15 15 15 15 15 15 15 15 15 16 16 16 16 16 16 16 16 16 15
12 12 11 11 13 14 14 14 14 14 14 14 14 14 14 14 13 13 13 13 14 14 14 14 14 14 14 14 14 14 14 14 15 15 15 15 16 16 15 16 16 16 15 15
11 11 11 12 13 13 14 14 15 15 14 14 14 14 14 13 13 13 13 13 13 13 13 13 13 13 13 13 13 13 13 13 14 14 15 15 15 15 15 15 15 15 15 15
11 11 10 11 12 13 13 14 14 14 14 14 14 14 13 13 13 13 12 12 12 12 12 12 12 12 12 12 12 12 12 12 13 13 14 14 14 14 15 15 15 15 15 14
10 11 10 10 10 12 13 14 14 14 14 14 13 13 13 13 12 12 12 12 11 11 11 11 11 11 11 11 11 11 11 11 12 12 13 13 13 13 14 14 14 14 15 14
8 10 10 11 12 11 13 13 13 13 13 13 13 12 12 12 12 11 11 11 11 11 11 10 10 10 10 10 10 10 10 10 10 11 12 12 12 12 13 13 14 14 14 14

GEFSCGP_850_meantemp_114.txt.gz
Temperature
21 22 22 23 23 23 24 24 24 24 24 24 25 25 26 25 24 25 25 24 24 24 23 22 21 21 20 20 20 19 19 19 18 17 17 16 16 15 15 14 14 14 13 13
22 22 23 23 23 23 24 24 24 24 24 25 25 25 26 25 24 24 24 25 24 24 23 22 21 21 21 20 20 20 19 19 18 18 17 16 16 15 15 14 14 14 13 13
23 23 22 23 23 23 24 24 24 24 24 25 25 26 26 26 25 24 23 24 24 23 23 23 21 21 21 21 20 20 19 19 18 18 17 17 16 15 15 14 14 14 13 13
22 22 22 23 23 24 23 24 24 24 25 25 25 25 26 26 26 25 24 24 23 22 22 22 21 21 21 21 20 20 19 19 19 18 17 17 16 16 15 14 14 14 13 13
22 23 23 23 23 24 24 23 24 24 25 26 26 26 26 26 26 25 25 24 23 22 22 21 21 21 21 20 20 20 19 19 19 18 17 17 16 15 15 15 14 14 14 13
23 23 24 24 23 23 23 24 24 25 26 25 25 26 25 25 25 25 25 24 23 22 21 21 21 21 21 21 21 20 20 19 19 18 18 17 16 16 15 15 14 14 14 13
23 23 23 23 23 23 24 25 25 25 25 24 24 25 24 24 24 24 23 23 22 21 21 21 21 21 21 21 21 20 20 19 19 18 17 17 16 16 15 15 15 14 14 14
23 23 24 24 25 25 25 25 25 24 24 24 25 25 24 24 23 22 22 22 21 21 21 20 20 21 21 21 21 20 20 19 19 18 18 17 16 16 15 15 15 14 14 14
25 24 24 24 24 25 25 25 25 25 25 25 25 25 24 24 24 23 22 22 21 20 20 19 20 20 20 20 20 20 20 19 19 18 18 17 17 16 16 15 15 15 14 14
25 24 24 24 24 23 25 25 25 25 24 24 24 24 24 23 23 23 22 21 20 19 19 19 19 19 19 20 20 20 20 19 19 18 18 17 17 16 16 15 15 15 15 14
25 25 24 24 25 25 24 24 25 25 25 24 24 24 23 22 22 22 21 20 19 19 18 18 18 19 19 19 19 19 19 19 18 18 17 17 17 16 16 16 15 15 15 14
24 26 25 24 24 24 25 25 25 25 24 24 24 23 22 22 21 21 20 19 18 18 18 18 18 18 18 18 18 18 18 18 18 18 17 17 17 16 16 16 15 15 15 14
24 25 24 24 24 24 24 24 24 25 25 24 24 23 22 22 21 20 19 19 18 18 17 17 17 18 18 18 18 18 18 18 18 18 17 17 16 16 16 16 15 15 15 15
23 26 25 24 25 25 24 23 23 25 25 24 24 23 22 21 20 19 18 18 18 18 17 17 17 17 17 17 17 17 18 18 17 17 17 17 16 16 16 16 15 15 15 15
24 25 25 24 24 24 24 24 23 24 25 25 24 23 22 21 20 19 18 18 17 17 17 16 16 16 16 17 17 17 17 17 17 17 17 16 16 16 16 16 16 15 15 15
24 25 24 23 23 23 23 23 23 23 23 23 23 22 21 20 19 18 18 17 17 16 16 16 16 16 16 16 16 16 16 16 16 16 16 16 16 16 16 16 16 15 15 15
24 24 24 24 23 23 23 23 23 22 22 23 22 22 20 19 18 18 17 16 16 15 15 15 15 15 15 16 16 16 16 16 15 15 15 15 15 15 15 15 15 15 15 15
23 24 24 23 23 22 23 21 21 21 21 21 21 20 19 18 17 16 16 16 15 14 14 14 14 15 15 15 15 15 15 15 15 15 14 14 15 15 15 15 15 15 15 14
21 22 23 23 23 23 21 20 20 21 20 20 20 19 18 17 17 17 15 14 14 14 14 14 14 14 14 14 14 14 14 14 14 14 14 14 14 14 14 14 14 14 14 14
19 21 22 22 22 22 23 21 19 21 20 19 19 19 18 18 20 19 15 14 14 13 13 13 13 13 14 14 13 14 14 14 14 14 13 13 13 13 14 14 14 14 14 14
20 20 21 22 22 23 21 19 19 21 22 19 18 18 18 18 19 16 14 13 13 13 13 13 13 13 13 13 13 13 13 13 13 13 13 13 13 13 13 13 13 13 13 13
21 21 21 21 21 22 18 19 20 21 19 18 18 17 17 16 15 14 14 13 13 13 12 12 12 12 12 12 12 12 12 12 12 12 12 12 12 12 13 13 13 13 13 13
20 21 21 21 21 18 17 18 18 17 18 17 17 16 15 15 14 14 13 13 12 12 12 12 11 11 11 11 11 11 11 11 11 11 11 11 11 12 12 12 12 12 12 12
19 17 18 19 18 17 16 16 15 16 16 16 15 15 14 14 14 13 13 12 12 11 11 11 11 11 11 11 10 10 10 10 10 10 10 11 11 11 11 11 11 11 11 11
18 17 18 19 18 16 15 15 15 15 15 14 14 14 13 13 13 13 12 12 11 11 11 11 10 10 10 10 10 10 10 9 10 10 10 10 10 10 10 10 10 10 10 10
17 17 18 19 18 18 16 15 14 14 14 14 13 13 13 12 12 12 12 11 11 10 10 10 10 10 9 9 9 9 9 9 9 9 9 9 9 9 9 9 9 10 10 10

GEFSCGP_850_meantemp_120.txt.gz
Temperature
22 22 22 23 23 23 24 24 24 25 27 26 25 25 26 26 26 26 26 25 25 25 24 24 23 23 22 22 22 21 20 19 19 18 18 17 17 17 16 16 16 15 15 14
22 22 24 24 24 24 24 24 24 25 27 26 26 25 26 26 26 26 26 26 25 25 24 24 23 23 22 22 21 21 20 20 19 19 18 17 17 17 16 16 16 15 15 14
23 24 25 25 25 25 24 24 25 25 26 26 26 25 25 26 26 26 26 25 25 25 24 23 23 22 22 22 21 21 20 20 19 19 18 17 17 17 16 16 16 15 15 15
23 24 25 25 25 25 24 25 26 26 25 25 25 23 24 25 25 26 26 25 25 24 24 23 23 22 22 22 21 21 20 20 19 19 18 18 17 17 17 16 16 16 15 15
23 24 24 24 25 25 24 26 25 25 25 25 25 24 24 25 25 25 25 25 24 24 23 23 22 22 22 21 21 20 20 19 19 19 18 18 17 17 16 16 16 16 16 15
24 25 25 25 25 25 26 26 25 26 25 24 25 25 23 24 25 25 25 24 24 23 23 22 22 21 21 21 20 20 20 19 19 19 18 18 17 17 16 16 16 16 16 16
23 24 25 25 25 25 26 25 24 23 23 23 26 25 23 25 26 25 25 24 23 23 22 22 21 21 21 20 20 20 19 19 19 19 18 18 17 17 17 16 16 16 16 16
23 23 25 25 26 25 25 25 23 22 23 23 26 24 24 25 25 25 24 23 23 22 21 21 21 20 20 20 20 19 19 19 19 18 18 17 17 17 17 16 16 16 16 16
24 24 26 26 26 26 25 25 25 24 24 24 25 24 24 25 25 24 24 23 22 22 21 21 20 20 20 19 19 19 19 19 18 18 18 17 17 17 17 16 16 16 16 16
25 24 25 26 26 26 26 26 25 24 23 23 24 24 23 23 23 24 23 23 22 21 21 20 20 20 19 19 19 18 18 18 18 18 17 17 17 17 16 16 16 16 16 16
25 25 25 25 25 26 26 26 26 25 26 24 23 24 25 24 24 23 23 22 22 21 20 19 19 19 19 19 19 18 18 18 18 17 17 17 17 17 16 16 16 16 16 16
26 26 25 26 27 27 27 27 27 25 26 26 24 23 26 24 24 24 23 22 21 20 20 19 19 19 18 18 18 18 18 18 17 17 17 17 17 16 16 16 16 16 16 16
26 25 24 25 25 26 26 27 27 27 26 26 24 23 25 24 23 23 22 22 21 20 19 19 19 18 18 18 18 17 17 17 17 17 17 16 16 16 16 16 16 16 16 15
24 25 25 24 25 26 26 26 27 26 26 26 25 23 23 23 23 22 22 21 20 20 19 19 18 18 18 17 17 17 17 17 16 16 16 16 16 16 16 16 15 15 15 15
26 25 26 26 27 27 27 27 27 26 27 26 25 24 23 23 22 22 21 21 20 19 19 18 18 18 18 17 17 17 17 16 16 16 16 16 15 15 15 15 15 15 15 15
26 26 26 26 27 27 26 27 27 26 26 26 25 24 25 23 22 22 21 20 19 19 18 18 18 17 17 17 17 16 16 16 16 16 15 15 15 15 14 14 14 14 14 14
26 26 25 25 27 26 25 26 26 26 26 26 25 24 24 23 22 21 20 20 19 18 18 17 17 17 17 17 16 16 16 16 15 15 15 15 14 14 14 14 14 14 14 14
26 26 26 25 26 24 26 27 27 26 26 26 26 24 24 23 22 21 20 19 18 18 17 17 17 16 16 16 16 15 15 15 15 15 14 14 14 14 13 13 13 13 13 13
26 25 25 25 25 25 25 26 26 25 25 26 25 24 23 22 21 20 19 18 18 17 16 16 16 16 16 15 15 15 15 15 14 14 13 13 13 13 13 13 13 13 13 13
25 25 24 24 24 24 25 26 26 25 23 25 25 23 22 21 20 19 19 18 17 16 16 15 15 15 15 14 14 14 14 14 13 13 13 13 12 12 12 12 12 12 12 12
23 23 23 23 24 25 25 25 25 23 23 25 24 23 22 21 20 20 18 17 16 16 15 15 14 14 14 14 14 13 13 13 13 12 12 12 12 12 12 12 12 12 12 12
24 23 23 23 23 23 23 24 24 24 24 24 23 22 21 20 19 18 17 16 16 15 14 14 14 14 13 13 13 13 12 12 12 12 12 12 11 11 11 11 11 11 11 11
25 25 24 24 23 23 23 23 23 23 23 23 22 21 20 19 18 17 16 16 15 15 14 14 13 13 13 12 12 12 12 12 11 11 11 11 11 11 11 11 11 10 10 10
25 25 24 23 22 22 22 22 21 21 21 21 21 20 19 18 17 17 16 15 15 14 14 13 13 13 12 12 12 11 11 11 11 11 11 10 10 10 10 10 10 10 10 10
23 23 23 23 22 22 21 21 20 20 20 20 19 19 18 17 17 16 15 15 14 14 13 13 13 12 12 12 11 11 11 11 10 10 10 10 10 10 10 9 9 9 9 9
23 22 22 22 22 21 21 20 19 19 19 18 18 18 17 16 16 15 15 14 14 13 13 13 12 12 12 11 11 11 10 10 10 10 10 9 9 9 9 9 9 9 9 9

GEFSCGP_850_meantemp_126.txt.gz
Temperature
19 17 17 18 18 19 19 19 20 20 22 21 20 20 20 21 21 21 21 21 22 22 22 22 22 21 21 21 21 20 20 19 19 18 18 17 17 16 16 16 16 15 15 15
17 17 18 19 19 20 19 19 19 21 22 21 20 20 20 20 21 21 21 21 22 22 22 22 22 22 21 21 21 20 20 19 19 18 18 17 17 16 16 16 16 15 15 15
18 19 20 20 20 19 19 19 20 20 21 21 20 19 19 20 20 21 21 21 22 22 22 22 21 21 21 21 21 20 20 19 19 18 18 17 17 16 16 16 16 15 15 15
18 20 20 20 20 20 20 21 21 21 19 19 20 18 19 19 19 19 20 21 21 21 21 21 21 21 21 21 20 20 20 19 19 18 18 17 17 16 16 16 16 15 15 15
19 20 20 20 20 20 20 21 21 20 19 18 19 18 19 19 19 19 19 20 21 21 21 21 21 21 21 20 20 20 19 19 19 18 18 17 17 16 16 16 16 16 15 15
19 20 20 20 21 21 20 20 19 18 18 18 19 18 19 18 19 19 19 20 20 21 21 21 21 21 20 20 20 20 19 19 18 18 18 17 17 16 16 16 16 16 15 15
20 20 21 21 20 20 20 18 18 18 18 18 19 19 18 19 19 19 19 19 20 21 21 21 21 20 20 20 20 19 19 19 18 18 18 17 17 16 16 16 16 16 16 15
19 19 20 21 20 20 19 19 18 18 18 18 19 18 19 20 20 20 20 20 20 20 20 20 20 20 20 20 19 19 19 18 18 18 17 17 17 16 16 16 16 16 15 15
18 19 21 21 21 21 19 18 18 18 18 18 18 18 19 19 18 19 19 19 19 20 20 20 20 20 19 19 19 19 18 18 18 18 17 17 17 16 16 16 16 16 15 15
19 19 20 21 22 21 20 19 17 18 18 18 18 18 17 18 18 18 18 18 19 19 19 19 19 19 19 19 18 18 18 18 17 17 17 17 16 16 16 16 16 15 15 15
19 19 20 21 21 21 20 20 18 17 17 17 17 18 19 19 18 18 18 19 19 19 19 19 19 19 18 18 18 18 18 17 17 17 17 16 16 16 16 16 16 15 15 15
19 17 18 20 22 22 21 21 19 18 18 17 17 18 20 19 19 19 18 19 19 19 19 19 18 18 18 18 18 18 17 17 17 17 16 16 16 16 16 16 15 15 15 15
20 18 18 19 20 22 22 21 20 18 17 17 17 19 19 18 18 19 18 19 19 19 18 18 18 18 18 18 18 17 17 17 16 16 16 16 16 16 15 15 15 15 15 15
20 18 18 19 20 20 22 22 21 19 18 18 18 18 18 18 17 17 18 19 18 18 18 18 18 18 18 17 17 17 17 16 16 16 16 16 15 15 15 15 14 14 14 14
20 19 20 20 21 22 22 22 22 21 19 19 19 18 18 18 18 18 18 18 18 18 18 18 18 17 17 17 17 17 16 16 16 16 15 15 15 14 14 14 14 14 14 14
19 20 21 21 22 22 22 22 22 21 21 20 19 19 19 19 18 18 18 18 18 18 18 17 17 17 17 17 17 16 16 16 16 15 15 15 14 14 14 14 13 13 13 13
18 19 19 19 20 21 21 21 21 21 21 20 19 19 18 17 17 18 18 18 18 18 18 17 17 17 17 17 16 16 16 15 15 15 15 14 14 14 14 13 13 13 13 13
18 18 17 18 20 20 20 21 22 21 21 20 20 19 18 19 19 19 19 18 18 18 17 17 17 17 17 16 16 16 15 15 15 14 14 14 14 13 13 13 13 13 12 12
18 18 17 17 18 19 21 22 21 21 21 20 19 19 19 19 18 17 18 19 19 18 18 17 17 17 16 16 16 15 15 15 14 14 14 13 13 13 13 12 12 12 12 12
17 17 17 16 19 19 20 21 22 21 20 20 19 18 18 18 16 16 18 18 18 18 17 17 16 16 16 15 15 15 14 14 14 13 13 13 12 12 12 12 12 11 11 11
18 17 16 16 17 18 19 21 22 20 20 21 20 19 18 18 19 19 18 18 18 17 17 17 16 16 15 15 15 14 14 13 13 13 12 12 12 12 11 11 11 11 11 11
17 16 15 15 17 18 20 20 20 20 21 21 21 20 20 20 20 19 18 18 17 17 16 16 16 15 15 14 14 14 13 13 13 12 12 12 11 11 11 11 11 10 10 10
16 17 16 16 17 19 20 21 22 22 22 22 21 21 20 20 19 18 18 18 17 17 16 16 15 15 14 14 14 13 13 12 12 12 12 11 11 11 10 10 10 10 10 9
16 16 15 16 17 18 20 21 22 22 22 22 22 21 20 20 19 18 18 17 17 16 16 15 15 14 14 14 13 13 12 12 12 11 11 11 11 10 10 10 10 9 9 9
17 16 15 16 17 18 19 21 21 22 22 21 21 21 20 19 18 18 17 17 16 16 15 15 14 14 14 13 13 12 12 12 11 11 11 11 10 10 10 10 9 9 9 8
15 16 16 16 17 16 19 21 21 21 21 20 20 19 19 19 18 18 17 16 16 15 15 14 14 14 13 13 12 12 12 11 11 11 10 10 10 10 9 9 9 9 8 8

GEFSCGP_850_meantemp_132.txt.gz
Temperature
17 16 16 17 17 18 18 18 18 18 19 19 18 18 18 19 19 19 19 20 20 20 21 21 21 20 20 20 19 19 18 18 18 17 17 16 16 16 15 15 15 15 15 14
16 16 17 18 18 18 18 18 18 18 19 19 18 18 18 18 18 18 19 20 20 20 21 21 21 20 20 20 19 19 19 18 18 17 17 16 16 16 15 15 15 15 15 14
17 17 18 18 18 18 18 18 18 18 19 18 18 18 18 18 18 18 19 19 20 20 21 21 21 20 20 20 19 19 19 18 18 17 17 16 16 16 15 15 15 15 15 14
17 18 18 18 18 18 18 18 19 19 18 17 18 18 18 17 17 17 18 19 20 20 20 20 21 20 20 20 19 19 19 18 18 17 17 17 16 16 15 15 15 15 15 14
17 18 18 18 18 18 18 18 18 18 17 17 17 17 17 17 18 17 17 18 19 20 20 20 20 20 20 20 19 19 18 18 18 17 17 17 16 16 16 15 15 15 15 15
18 18 18 18 18 18 18 18 17 16 17 17 18 17 17 16 18 18 17 18 19 20 20 20 20 20 20 19 19 19 18 18 18 17 17 17 16 16 16 15 15 15 15 15
18 18 18 18 18 17 17 17 17 17 17 17 17 17 17 18 18 18 18 18 19 19 20 20 20 20 19 19 19 19 18 18 17 17 17 17 16 16 16 15 15 15 15 15
17 17 18 18 18 17 17 17 17 17 17 16 17 17 17 18 18 18 18 18 19 19 19 20 20 19 19 19 19 18 18 18 17 17 17 16 16 16 16 15 15 15 15 15
17 17 18 18 18 17 17 17 17 16 17 17 17 17 17 17 17 17 17 18 18 19 19 19 19 19 19 19 18 18 18 18 17 17 17 16 16 16 16 15 15 15 15 15
17 17 18 18 18 17 17 16 15 16 16 17 17 17 17 17 17 16 16 17 18 19 19 19 19 19 18 18 18 18 18 17 17 17 16 16 16 16 16 15 15 15 15 15
17 17 18 18 18 18 17 17 16 15 16 16 17 17 18 18 17 16 16 17 18 19 19 19 18 18 18 18 18 18 17 17 17 16 16 16 16 16 15 15 15 15 15 14
17 16 16 18 19 19 18 18 16 17 16 16 16 17 19 17 17 17 17 18 18 19 19 18 18 18 18 18 17 17 17 17 16 16 16 16 16 15 15 15 15 14 14 14
17 16 17 18 18 19 19 18 17 16 15 15 16 18 17 17 17 17 17 18 18 18 18 18 18 18 17 17 17 17 17 17 16 16 16 16 15 15 15 15 14 14 14 14
18 16 17 18 18 18 19 19 17 17 16 16 16 18 17 17 16 16 17 18 18 18 18 18 18 17 17 17 17 17 17 16 16 16 16 15 15 15 14 14 14 14 14 14
18 18 18 18 19 19 19 19 18 18 17 17 18 17 18 17 16 17 17 17 17 17 18 18 18 17 17 17 17 17 16 16 16 16 15 15 15 14 14 14 14 13 13 13
17 18 18 19 19 19 19 19 19 18 18 18 18 18 18 18 17 17 16 17 17 17 18 18 18 17 17 17 17 17 16 16 16 15 15 15 14 14 14 14 13 13 13 13
16 17 18 18 18 19 19 19 19 19 18 18 18 19 17 16 16 17 17 17 18 18 18 18 18 18 18 17 17 17 16 16 15 15 15 14 14 14 13 13 13 13 12 12
16 16 15 17 19 19 19 19 19 19 19 18 18 18 17 18 19 19 19 19 19 19 18 18 18 18 18 17 17 16 16 16 15 15 14 14 14 13 13 13 13 12 12 12
15 15 15 15 17 18 19 19 19 19 19 18 18 18 18 18 17 17 19 20 20 20 20 19 18 18 18 17 17 16 16 15 15 14 14 14 13 13 13 13 12 12 12 12
14 15 15 15 17 18 19 20 20 19 19 19 18 17 16 17 16 17 20 20 19 19 19 19 18 17 17 17 16 16 15 15 15 14 14 13 13 13 12 12 12 11 11 11
15 15 15 15 16 17 18 19 19 19 19 21 20 19 17 17 20 21 21 20 20 19 19 18 18 17 17 17 16 15 15 15 14 14 13 13 12 12 12 11 11 11 11 11
15 14 14 13 16 17 18 18 18 19 21 21 21 20 20 21 21 21 21 20 19 19 18 18 18 17 17 16 16 15 15 15 14 13 13 12 12 12 11 11 11 10 10 10
14 15 14 15 17 18 18 19 21 21 21 22 22 22 21 21 20 20 20 20 19 19 18 18 17 17 16 16 15 15 15 14 13 13 12 12 12 11 11 11 10 10 10 10
13 13 13 13 14 17 18 20 21 21 22 22 22 22 21 21 21 20 20 19 19 18 18 17 17 16 16 15 15 15 14 14 13 13 12 12 11 11 11 10 10 10 10 9
14 12 13 14 14 16 19 21 21 22 22 22 22 21 21 21 20 20 20 19 19 18 18 17 17 16 16 15 15 14 14 13 13 12 12 11 11 11 10 10 10 10 9 9
12 13 14 15 17 16 19 21 21 21 22 22 21 21 21 21 20 20 19 19 18 18 17 17 16 16 16 15 14 14 13 13 12 12 11 11 11 11 10 10 10 9 9 9

GEFSCGP_850_meantemp_138.txt.gz
Temperature
20 21 21 21 22 22 21 22 21 21 21 22 22 22 22 22 22 22 22 22 22 22 21 20 19 19 19 19 18 18 18 17 17 17 16 16 15 15 15 15 15 15 14 14
21 21 21 21 21 21 21 21 21 21 21 22 22 22 22 22 22 22 22 22 22 22 21 20 19 19 19 19 18 18 18 17 17 17 16 16 16 15 15 15 15 15 15 14
21 21 21 21 21 21 21 21 21 21 21 22 22 22 22 22 22 21 21 22 22 21 21 20 19 19 19 19 18 18 18 17 17 17 16 16 16 15 15 15 15 15 15 15
21 21 21 21 21 21 21 21 21 21 21 21 22 22 23 23 22 22 22 21 21 21 20 20 19 19 19 19 18 18 18 17 17 17 16 16 16 16 15 15 15 15 15 15
20 20 20 20 21 21 20 21 21 21 21 22 22 23 23 23 23 23 23 22 21 21 20 20 19 19 19 19 19 18 18 18 17 17 17 16 16 16 15 15 15 15 15 15
20 20 21 21 21 20 20 21 20 21 21 21 22 23 23 24 24 24 23 22 21 20 20 19 19 19 19 19 19 18 18 18 18 17 17 16 16 16 15 15 15 15 15 15
20 20 20 20 20 20 21 21 20 20 20 21 23 23 24 25 25 24 24 22 21 20 20 19 19 19 19 19 19 18 18 18 17 17 17 16 16 16 15 15 15 15 15 14
20 20 20 21 21 21 21 21 21 20 21 22 22 23 24 24 23 23 23 22 21 20 20 19 19 19 19 19 18 18 18 18 17 17 17 16 16 16 16 15 15 15 15 14
21 21 21 21 21 22 20 21 22 22 22 22 23 24 24 23 23 22 22 21 21 20 19 19 18 18 19 18 18 18 18 17 17 17 17 16 16 16 16 15 15 15 15 15
22 21 21 20 21 20 21 22 21 22 22 22 23 24 24 23 23 23 22 21 21 20 19 18 18 18 18 18 18 18 18 17 17 17 16 16 16 16 16 15 15 15 15 14
22 21 20 20 21 21 21 21 22 22 23 23 23 24 25 25 25 24 23 22 21 20 19 18 18 18 18 18 18 18 17 17 17 17 16 16 16 16 15 15 15 15 14 14
22 22 21 21 21 21 22 22 22 22 22 23 24 25 25 25 24 24 23 22 21 20 19 18 18 18 18 18 18 18 17 17 17 16 16 16 16 16 15 15 15 14 14 14
22 21 20 20 20 20 21 22 22 23 23 23 23 24 24 24 24 23 23 22 20 19 18 18 18 18 18 18 18 17 17 17 17 16 16 16 16 15 15 15 14 14 14 14
22 22 22 21 22 22 21 21 22 22 23 23 24 25 25 25 24 23 22 21 20 19 18 18 18 18 18 18 17 17 17 17 17 16 16 16 15 15 15 14 14 14 14 14
22 22 22 23 23 22 23 23 22 23 24 24 25 25 25 25 25 23 21 20 19 19 18 18 18 18 18 17 17 17 17 17 16 16 16 15 15 15 15 14 14 14 14 13
22 23 23 22 22 22 22 23 23 23 24 24 24 25 26 25 24 23 21 20 19 19 18 18 18 18 18 17 17 17 17 17 16 16 16 15 15 15 15 14 14 14 14 13
23 23 22 22 22 22 22 24 24 23 24 24 24 25 25 24 23 22 21 20 20 19 18 18 18 18 18 17 17 17 17 16 16 16 15 15 15 15 14 14 14 13 13 13
23 23 23 23 22 21 24 25 24 24 24 25 25 25 25 24 23 22 21 20 20 19 19 18 18 18 18 17 17 17 17 16 16 15 15 15 15 15 14 14 14 13 13 13
23 23 23 23 22 23 24 24 24 24 24 26 25 25 24 23 22 22 21 21 20 20 19 19 19 18 18 17 17 17 16 16 16 15 15 15 15 14 14 14 13 13 13 12
21 22 23 22 22 22 24 24 23 24 24 26 25 24 23 22 23 24 22 21 20 19 19 18 18 18 17 17 17 16 16 16 16 16 15 15 14 14 14 13 13 13 12 12
21 21 22 22 22 23 25 22 23 23 25 25 24 24 22 23 24 23 21 20 20 19 19 18 18 18 18 17 17 16 16 16 16 15 15 14 14 14 13 13 13 12 12 11
23 22 22 22 22 23 23 22 24 25 24 23 23 23 22 22 22 21 21 20 20 19 18 18 18 18 17 17 17 16 16 16 15 15 14 14 14 13 13 13 12 12 11 11
23 23 23 23 23 23 21 22 22 21 22 22 22 22 21 21 20 20 20 20 19 19 18 18 18 17 17 17 17 16 16 15 15 15 14 14 13 13 13 12 12 11 11 11
22 20 21 22 23 22 20 20 20 20 20 21 21 20 20 20 20 20 19 19 19 18 18 18 17 17 17 17 17 16 16 15 15 15 14 13 13 12 12 12 11 11 11 10
21 20 21 22 23 21 20 20 19 19 20 20 20 20 20 20 20 20 19 19 19 18 18 17 17 17 17 17 16 16 15 15 15 14 14 13 12 12 12 11 11 11 11 10
20 20 21 22 22 22 21 19 19 19 19 19 19 19 19 19 19 19 19 19 19 18 18 17 17 17 16 16 16 16 15 15 14 13 13 13 12 12 12 11 11 11 11 10

GEFSCGP_850_meantemp_144.txt.gz
Temperature
22 22 22 22 23 23 23 22 22 22 23 22 21 21 22 23 23 23 23 23 23 23 22 22 21 21 21 20 20 19 19 18 18 18 17 17 17 16 16 16 16 15 15 15
22 21 23 24 24 24 23 22 22 21 22 22 21 21 23 23 23 23 23 23 23 23 22 22 21 21 21 20 20 19 19 18 18 18 17 17 17 16 16 16 16 15 16 15
22 22 23 24 23 23 23 22 22 21 22 22 21 21 22 23 23 23 23 24 24 23 22 21 21 21 20 20 20 19 19 18 18 18 17 17 17 17 16 16 16 16 15 15
22 23 23 23 23 23 22 22 22 22 21 21 22 20 21 22 23 23 24 24 24 23 22 22 21 21 20 20 20 19 19 18 18 18 17 17 17 17 16 16 16 16 15 15
22 23 23 22 22 23 22 23 22 22 21 21 22 21 22 23 23 23 24 24 24 23 22 22 21 21 20 20 20 19 19 18 18 18 17 17 17 17 16 16 16 16 15 15
23 23 23 23 23 23 22 22 22 21 21 20 22 22 22 23 23 23 24 24 24 23 22 22 21 20 20 20 19 19 19 18 18 18 17 17 17 17 16 16 16 16 15 15
22 22 23 23 22 22 22 21 20 20 19 20 22 22 23 24 25 25 24 24 24 23 22 21 21 20 20 19 19 19 19 18 18 18 17 17 17 17 16 16 16 16 15 15
21 21 22 23 22 21 21 21 20 19 20 21 23 22 24 26 26 25 24 24 23 23 22 21 21 20 20 19 19 19 18 18 18 18 17 17 17 17 16 16 16 16 16 15
22 21 23 23 23 23 21 21 21 21 21 21 22 23 24 25 25 25 25 24 23 23 22 21 21 20 20 19 19 19 19 18 18 18 17 17 17 17 17 16 16 16 16 15
22 21 22 23 22 22 22 22 21 21 20 21 22 23 23 24 24 25 25 24 24 23 22 21 20 20 19 19 19 19 18 18 18 18 17 17 17 17 17 16 16 16 16 15
23 21 21 22 21 21 22 22 22 22 22 21 21 23 26 25 25 25 25 25 24 23 22 21 20 20 19 19 19 19 18 18 18 18 17 17 17 17 17 16 16 16 16 15
23 22 21 22 23 23 23 23 23 21 22 22 22 23 26 26 26 25 25 25 24 23 22 21 20 20 19 19 19 18 18 18 18 18 18 17 17 17 17 16 16 16 16 15
23 22 21 21 22 22 22 23 24 23 22 22 22 23 26 26 26 26 25 25 24 23 22 21 20 20 19 19 19 19 18 18 18 18 18 17 17 17 17 16 16 16 15 15
23 22 21 21 21 22 22 23 24 23 22 23 23 24 26 26 26 26 25 25 24 23 22 21 20 20 19 19 19 19 18 18 18 18 17 17 17 17 16 16 16 16 15 15
24 22 23 23 23 23 23 24 24 24 24 23 24 24 25 26 26 26 25 25 24 23 22 21 20 20 19 19 19 18 18 18 18 18 17 17 17 17 16 16 16 15 15 15
24 23 23 23 23 24 24 24 24 24 24 24 25 25 27 27 26 26 25 25 23 23 22 21 20 20 19 19 19 19 18 18 18 18 17 17 17 17 16 16 16 15 15 15
24 23 22 22 23 23 23 24 24 25 25 25 24 25 27 26 26 26 25 24 24 23 22 21 21 20 19 19 19 19 18 18 18 17 17 17 17 16 16 16 15 15 15 15
24 23 23 22 22 21 24 26 25 25 25 26 26 26 27 26 26 26 25 24 24 23 22 22 21 20 20 20 19 19 18 18 18 17 17 17 17 16 16 16 15 15 14 14
25 24 23 22 21 23 24 25 25 25 25 26 26 26 27 27 26 25 25 24 23 23 22 22 21 21 20 20 19 18 18 18 17 17 17 17 16 16 16 16 15 15 14 14
25 24 23 22 21 21 24 26 26 26 24 26 26 26 26 26 24 24 25 24 23 23 22 22 21 21 20 20 19 18 18 18 17 17 17 17 16 16 16 15 15 14 14 14
23 23 22 22 22 23 25 25 26 24 24 25 26 26 26 25 24 24 24 23 23 22 22 21 21 20 20 19 19 18 18 17 17 17 17 16 16 16 16 15 15 14 14 13
24 23 23 23 22 22 25 25 25 24 25 25 25 25 24 24 24 23 23 22 22 22 21 21 20 20 20 19 19 18 18 17 17 17 17 16 16 16 15 15 14 14 14 13
25 24 24 24 23 24 24 24 24 24 24 24 24 24 23 23 23 23 22 22 21 21 21 20 20 20 19 19 18 18 18 17 17 17 16 16 16 15 15 15 14 14 13 13
25 26 25 24 24 24 24 24 23 23 23 23 23 23 22 22 22 22 21 21 20 20 20 20 19 19 19 18 18 18 17 17 17 17 16 16 15 15 15 14 14 14 13 13
23 24 24 24 24 24 23 23 23 22 22 22 22 22 22 22 21 21 21 20 20 19 19 19 19 18 18 18 17 17 17 17 16 16 16 15 15 15 14 14 14 14 13 13
23 23 23 22 23 23 22 22 22 22 21 21 21 21 21 21 21 21 20 20 19 19 19 19 18 18 18 17 17 17 16 16 16 16 15 15 14 14 14 14 13 13 13 12

GEFSCGP_850_meantemp_150.txt.gz
Temperature
19 17 17 17 18 19 19 19 19 19 19 19 18 19 19 19 20 20 20 20 20 20 20 20 20 20 19 19 19 18 18 18 17 17 17 17 16 16 16 16 16 15 15 15
17 17 18 19 19 19 19 18 18 19 19 19 18 19 19 19 19 20 20 20 20 20 20 20 20 20 19 19 19 18 18 18 17 17 17 17 16 16 16 16 16 15 15 15
17 18 19 20 19 19 19 18 19 19 19 19 19 19 19 19 20 20 20 20 20 20 20 20 20 20 19 19 19 18 18 18 18 17 17 16 16 16 16 16 16 15 15 15
18 19 20 19 19 19 18 19 20 19 18 17 19 17 18 18 18 19 20 20 20 20 20 20 20 20 19 19 19 19 18 18 18 17 17 17 17 16 16 16 16 15 15 15
18 19 19 19 19 20 19 19 19 19 18 17 18 17 17 18 18 18 19 20 20 21 20 20 20 20 20 19 19 19 18 18 18 17 17 17 17 16 16 16 16 16 15 15
19 20 20 19 20 20 19 18 18 17 17 17 18 17 17 17 19 19 19 20 20 20 20 20 20 20 20 19 19 19 18 18 18 18 17 17 17 16 16 16 16 16 15 15
19 19 19 20 19 19 18 17 16 17 16 17 18 18 18 19 20 20 20 20 21 21 20 20 20 20 20 19 19 19 19 18 18 18 17 17 17 17 16 16 16 16 16 15
18 18 19 19 19 18 18 17 16 17 17 17 18 18 19 20 21 21 21 21 21 20 20 20 20 20 20 20 19 19 19 19 18 18 17 17 17 17 16 16 16 16 16 15
17 18 19 20 20 19 18 17 17 16 17 17 17 18 19 20 19 20 20 20 20 20 20 21 20 20 20 20 20 19 19 19 18 18 18 17 17 17 17 16 16 16 16 15
18 18 19 19 19 19 18 17 16 16 17 17 18 18 18 19 19 19 19 20 20 20 20 21 21 20 20 20 20 19 19 19 18 18 18 17 17 17 17 16 16 16 16 16
18 17 18 18 18 18 18 18 16 16 16 16 17 18 20 20 19 19 20 20 20 20 20 21 21 21 20 20 20 19 19 19 18 18 18 18 17 17 17 17 16 16 16 16
18 16 16 18 18 19 19 18 17 16 17 16 17 18 21 20 20 20 20 21 21 21 21 21 21 21 20 20 20 19 19 19 18 18 18 18 17 17 17 17 16 16 16 16
18 16 16 17 17 18 19 19 18 17 16 16 17 18 20 20 20 21 21 21 21 21 21 21 21 21 20 20 20 19 19 19 18 18 18 18 17 17 17 17 16 16 16 16
19 17 17 17 18 18 18 19 19 17 16 17 18 19 20 20 20 20 21 21 21 21 21 21 21 21 20 20 20 19 19 19 18 18 18 18 17 17 17 17 16 16 16 16
18 17 18 18 19 19 19 20 19 19 18 18 19 19 20 20 20 21 21 21 21 20 20 21 21 21 20 20 20 19 19 19 18 18 18 18 17 17 17 17 16 16 16 16
17 18 18 19 19 19 19 20 20 20 20 19 20 20 20 21 21 21 21 21 20 20 21 21 21 21 21 20 20 20 19 19 19 18 18 18 17 17 17 17 16 16 16 16
17 17 18 18 19 19 19 20 20 20 20 20 20 20 20 20 20 21 21 21 21 21 21 21 21 21 21 21 20 20 19 19 18 18 18 18 17 17 17 16 16 16 16 15
17 16 16 17 18 19 19 20 21 21 21 21 21 20 21 21 22 22 22 22 22 22 22 22 22 21 21 21 20 20 19 19 18 18 18 18 17 17 17 16 16 16 16 15
17 17 16 16 17 18 20 20 21 20 20 20 20 21 21 22 21 21 22 23 23 23 23 22 22 22 21 21 20 20 19 19 19 18 18 18 17 17 17 16 16 16 15 15
17 16 16 16 18 18 19 21 21 20 20 21 21 20 21 21 18 19 22 22 23 23 22 22 22 21 21 21 20 20 19 19 19 19 18 18 17 17 17 16 16 16 15 15
17 17 16 16 17 17 19 20 21 19 19 21 22 22 21 20 20 22 22 22 23 22 22 22 22 21 21 21 20 20 19 19 19 19 18 18 17 17 16 16 16 15 15 15
17 16 16 15 17 18 20 20 19 19 21 21 22 22 22 22 22 22 22 22 22 22 22 22 21 21 21 20 20 20 19 19 19 18 18 17 17 16 16 16 15 15 15 14
17 17 16 17 17 19 20 20 22 22 21 22 22 22 22 22 22 22 22 22 22 21 21 21 21 21 20 20 20 20 19 19 18 18 18 17 17 16 16 16 15 15 14 14
17 17 16 16 17 18 20 21 21 21 22 22 22 21 21 21 21 21 21 21 21 21 21 20 20 20 20 20 20 19 19 19 18 18 17 17 16 16 16 15 15 15 14 14
17 16 16 16 17 18 19 20 21 21 21 21 21 21 21 21 21 21 21 20 20 20 20 20 20 20 20 19 19 19 19 18 18 17 17 17 16 16 15 15 15 15 15 14
16 16 16 16 17 17 19 20 20 20 20 20 20 20 20 20 20 20 20 20 20 19 19 19 19 19 19 19 19 18 18 18 17 17 17 16 16 16 15 15 14 14 14 14

GEFSCGP_850_meantemp_156.txt.gz
Temperature
18 16 16 17 17 18 17 17 17 17 18 18 17 17 17 18 18 18 18 18 18 19 19 19 18 18 18 18 18 17 17 17 17 16 16 16 16 15 15 15 15 15 15 15
16 16 17 17 18 18 17 17 17 17 18 18 17 17 17 18 18 18 18 18 19 19 19 19 18 18 18 18 18 17 17 17 17 16 16 16 16 15 15 15 15 15 15 15
17 17 18 18 18 18 17 17 17 17 17 18 18 17 17 18 18 18 18 19 19 19 19 19 19 18 18 18 18 18 17 17 17 16 16 16 16 16 15 15 15 15 15 15
17 17 18 18 18 18 17 18 18 18 17 16 17 16 17 17 17 17 18 18 19 19 19 19 19 19 18 18 18 18 17 17 17 17 16 16 16 16 16 15 15 15 15 15
17 17 17 17 17 18 17 18 17 17 17 16 17 17 16 16 17 17 18 18 19 19 19 19 19 19 19 18 18 18 17 17 17 17 17 16 16 16 16 15 15 15 15 15
17 17 17 17 17 17 17 17 16 15 16 16 17 17 16 16 17 18 18 18 19 19 19 19 19 19 19 18 18 18 18 17 17 17 17 16 16 16 16 15 15 15 15 15
17 17 17 17 17 17 17 16 16 16 15 16 16 17 17 17 18 18 18 19 19 20 19 19 19 19 19 18 18 18 18 18 17 17 17 17 16 16 16 16 15 15 15 15
17 16 17 17 17 17 16 16 16 16 16 16 16 16 17 18 19 19 19 19 19 19 20 20 20 19 19 19 18 18 18 18 18 17 17 17 17 16 16 16 16 15 15 15
16 17 18 18 17 17 16 15 15 15 16 16 16 16 17 18 18 18 19 19 19 19 20 20 20 20 19 19 19 19 18 18 18 17 17 17 17 16 16 16 16 15 15 15
17 17 17 17 17 17 16 15 14 15 16 16 17 17 17 18 18 18 17 18 19 19 20 20 20 20 20 19 19 19 18 18 18 18 17 17 17 17 16 16 16 16 15 15
17 16 17 17 17 17 16 16 15 14 15 15 16 17 18 18 18 18 18 19 19 20 20 20 20 20 20 19 19 19 19 18 18 18 18 17 17 17 16 16 16 16 15 15
16 15 16 17 17 17 17 16 15 15 15 15 15 16 19 18 18 18 19 19 20 20 20 20 20 20 20 19 19 19 19 18 18 18 18 17 17 17 17 16 16 16 16 15
16 15 16 17 16 17 17 16 16 15 14 14 15 17 18 18 18 19 19 19 20 20 20 20 20 20 20 19 19 19 19 19 18 18 18 17 17 17 17 16 16 16 16 15
17 15 16 17 17 16 17 17 16 15 15 15 16 17 18 18 18 18 19 20 20 20 20 20 20 20 20 20 19 19 19 19 18 18 18 18 17 17 17 16 16 16 16 15
17 16 16 17 17 17 17 17 16 16 16 16 17 17 18 18 18 19 19 20 19 20 20 20 20 20 20 20 20 19 19 19 18 18 18 18 17 17 17 16 16 16 16 15
16 16 17 17 17 17 17 18 17 17 17 16 17 17 18 19 19 19 19 19 19 20 20 20 20 20 20 20 20 20 19 19 19 18 18 18 17 17 17 17 16 16 16 15
15 16 16 16 17 18 17 18 17 17 17 17 17 18 18 18 18 19 20 20 20 20 20 20 20 20 20 20 20 20 20 19 19 18 18 18 17 17 17 17 16 16 16 15
15 15 14 15 17 17 18 18 18 18 18 17 18 18 18 18 19 20 20 20 21 21 21 21 21 21 21 20 20 20 20 19 19 18 18 18 17 17 17 17 16 16 16 16
15 15 14 14 16 17 18 19 18 18 18 18 18 18 19 19 19 19 20 21 21 21 21 21 21 21 21 20 20 20 19 19 19 19 18 18 18 17 17 17 16 16 16 16
14 14 14 14 17 17 18 19 19 19 18 19 18 18 18 18 17 18 21 21 22 21 21 21 21 21 20 20 20 20 19 19 19 19 18 18 18 17 17 17 16 16 16 15
15 14 14 14 16 16 17 18 19 18 18 20 19 19 19 18 19 20 21 21 21 21 21 21 21 21 20 20 20 19 19 19 19 19 18 18 18 17 17 16 16 16 15 15
15 14 14 14 15 16 17 17 17 18 20 20 20 20 20 20 20 20 21 21 21 21 21 21 21 20 20 20 20 20 19 19 19 18 18 18 17 17 17 16 16 15 15 15
14 15 14 15 16 17 17 18 19 20 20 20 20 20 20 20 20 20 21 21 21 21 21 20 20 20 20 19 19 19 19 19 18 18 18 17 17 17 16 16 16 15 15 15
14 13 13 14 15 16 18 18 19 20 20 20 20 20 20 20 20 20 20 20 20 20 20 20 20 20 19 19 19 19 19 18 18 18 17 17 17 16 16 16 15 15 15 15
14 13 13 14 15 16 18 19 19 20 20 20 20 20 20 20 20 20 20 20 20 20 19 19 19 19 19 19 19 18 18 18 18 17 17 17 16 16 16 16 15 15 15 15
12 13 14 15 16 16 18 19 19 19 19 20 20 20 19 20 19 19 19 19 19 19 19 19 19 18 18 18 18 18 18 17 17 17 17 17 16 16 16 15 15 15 14 14

GEFSCGP_850_meantemp_162.txt.gz
Temperature
21 22 22 22 22 22 22 22 21 21 21 21 21 21 21 20 20 20 20 20 20 19 19 18 18 18 18 17 17 17 17 16 16 16 16 15 15 15 15 15 15 15 15 15
22 21 21 21 21 21 21 21 21 21 21 21 21 21 22 21 21 21 21 21 20 20 19 18 18 18 18 17 17 17 17 16 16 16 16 15 15 15 15 15 15 15 15 15
22 21 21 21 21 21 21 21 21 21 21 21 21 21 21 22 21 20 20 20 21 20 19 19 18 18 18 18 17 17 17 16 16 16 16 16 15 15 15 15 15 15 15 15
21 21 21 21 21 21 21 21 21 21 21 21 21 21 22 22 21 21 20 20 20 20 19 19 18 18 18 18 17 17 17 17 16 16 16 16 15 15 15 15 15 15 15 15
21 20 21 21 21 21 21 21 21 21 21 21 21 21 22 22 22 22 21 21 20 20 19 19 19 18 18 18 18 17 17 17 17 16 16 16 16 15 15 15 15 15 15 15
21 20 20 20 20 21 21 21 21 21 21 21 22 22 22 23 23 23 22 21 20 20 19 19 19 18 18 18 18 17 17 17 17 16 16 16 16 16 15 15 15 15 15 15
20 20 20 20 20 20 21 21 21 20 21 21 22 22 23 24 24 23 23 22 21 20 19 19 19 18 18 18 18 18 17 17 17 17 16 16 16 16 15 15 15 15 15 15
21 20 20 20 21 21 21 21 21 20 21 21 21 22 24 24 23 22 22 22 21 20 20 19 19 19 18 18 18 18 18 17 17 17 16 16 16 16 16 15 15 15 15 15
21 20 20 20 20 21 21 21 21 21 21 21 22 23 23 23 23 22 22 21 21 20 20 19 19 19 18 18 18 18 18 17 17 17 17 16 16 16 16 16 15 15 15 15
22 20 20 20 20 20 21 21 21 21 21 21 22 22 23 23 23 23 23 22 21 21 20 19 19 19 19 18 18 18 18 17 17 17 17 17 16 16 16 16 16 15 15 15
21 21 20 20 20 21 21 21 21 21 21 21 21 23 24 23 23 23 23 22 21 21 20 20 19 19 19 18 18 18 18 18 17 17 17 17 17 16 16 16 16 16 15 15
21 22 21 21 21 21 21 22 21 21 21 21 22 22 24 23 23 23 23 22 21 21 20 20 19 19 19 18 18 18 18 18 18 18 17 17 17 17 16 16 16 16 15 15
21 21 21 21 20 20 21 21 21 22 21 21 21 22 24 23 23 23 22 22 21 20 20 19 19 19 19 19 18 18 18 18 18 18 17 17 17 17 17 16 16 16 16 15
21 22 22 21 22 22 21 21 21 21 21 22 22 23 23 23 23 23 22 21 21 20 20 19 19 19 19 19 19 19 18 18 18 18 18 17 17 17 17 16 16 16 16 16
22 22 22 22 22 22 22 21 21 21 22 22 22 22 23 24 23 22 22 21 20 20 20 19 19 19 19 19 19 19 19 19 18 18 18 18 17 17 17 16 16 16 16 16
22 22 22 22 22 21 21 21 21 21 21 22 22 22 24 23 22 22 22 21 20 20 20 19 19 19 19 19 19 19 19 19 19 18 18 18 18 17 17 17 16 16 16 16
22 22 22 22 22 21 21 22 22 22 22 22 22 23 24 23 22 22 21 21 20 20 20 20 19 19 19 19 19 19 19 19 19 18 18 18 18 17 17 17 16 16 16 16
22 22 22 22 21 20 23 23 22 22 22 23 23 23 23 22 21 20 20 20 20 20 19 20 20 20 19 19 19 19 19 19 18 18 18 18 18 17 17 17 16 16 16 16
22 22 22 22 21 21 22 22 22 22 22 23 23 23 22 21 21 21 20 19 19 19 19 20 20 20 19 19 19 19 18 18 18 18 18 18 18 17 17 17 16 16 16 16
20 21 22 21 21 21 22 23 21 22 22 23 23 23 22 22 23 23 20 19 19 19 20 20 20 19 19 19 19 19 18 18 18 18 18 18 18 17 17 17 16 16 16 16
20 20 21 21 21 22 22 21 21 21 22 22 22 22 22 22 23 21 20 19 19 20 20 20 20 19 19 19 19 18 18 18 18 18 18 18 18 17 17 17 16 16 16 16
22 21 21 21 21 21 21 21 22 22 22 21 21 21 21 21 20 19 19 19 19 19 19 19 19 19 19 19 19 18 18 18 18 18 18 17 17 17 17 16 16 16 16 15
22 22 22 22 22 21 20 21 20 20 21 21 21 20 20 20 19 19 19 19 19 19 19 19 19 19 19 19 18 18 18 18 18 18 17 17 17 17 16 16 16 16 15 15
21 20 21 21 21 20 19 19 19 19 19 19 19 19 19 19 19 18 18 18 18 19 19 18 18 18 18 18 18 18 18 18 17 17 17 17 17 16 16 16 16 15 15 15
20 20 21 21 21 19 19 19 19 19 19 19 19 18 18 18 18 18 18 18 18 18 18 18 18 18 18 18 18 17 17 17 17 17 17 16 16 16 16 16 16 15 15 15
20 20 21 21 21 21 20 19 18 18 18 18 18 18 18 18 18 18 18 18 18 18 18 18 18 17 17 17 17 17 17 16 16 16 16 16 16 16 16 15 15 15 15 15

GEFSCGP_850_meantemp_168.txt.gz
Temperature
24 23 23 24 24 24 24 23 23 22 23 23 22 22 22 22 21 21 21 21 21 20 20 20 20 20 19 19 19 18 18 18 17 17 17 16 16 16 16 16 16 16 16 16
24 23 24 24 24 24 24 23 23 22 23 23 22 22 22 22 22 21 21 21 21 21 21 20 20 19 19 19 19 18 18 18 17 17 17 17 16 16 16 16 16 16 16 16
23 24 24 24 23 23 23 23 22 22 23 23 22 22 22 22 22 22 22 22 22 21 21 20 20 19 19 19 19 19 18 18 17 17 17 17 16 16 16 16 16 16 16 16
24 24 24 23 23 23 22 23 23 22 22 22 22 21 22 22 22 23 22 22 22 22 21 20 20 19 19 19 19 19 18 18 17 17 17 17 16 16 16 16 16 16 16 16
23 23 23 23 23 23 23 23 23 23 22 22 22 21 22 23 22 22 23 22 22 22 21 21 20 20 19 19 19 18 18 18 17 17 17 17 16 16 16 16 16 16 16 15
23 24 23 23 23 24 23 23 23 22 22 21 22 22 21 22 23 23 23 23 22 22 21 21 20 20 19 19 18 18 18 18 17 17 17 17 16 16 16 16 16 16 16 16
23 23 23 23 23 23 23 22 21 21 20 21 23 23 22 24 24 24 24 23 22 22 21 21 20 20 19 19 18 18 18 17 17 17 17 17 17 16 16 16 16 16 16 16
22 22 23 23 23 22 23 22 20 20 21 22 23 23 24 25 25 24 24 23 23 22 21 21 20 20 19 19 18 18 18 17 17 17 17 17 17 17 16 16 16 16 16 16
23 22 23 23 23 23 22 22 22 21 22 22 22 23 24 25 25 24 24 23 23 22 21 21 20 20 19 19 19 18 18 18 17 17 17 17 17 17 17 16 16 16 16 16
24 22 23 23 23 23 23 23 22 21 21 21 22 23 23 23 23 24 24 23 23 22 21 21 20 20 19 19 19 18 18 18 18 18 17 17 17 17 17 17 16 16 16 16
24 22 22 22 22 22 23 23 22 22 22 20 21 22 24 24 24 24 24 24 23 22 22 21 20 20 19 19 19 18 18 18 18 18 18 17 17 17 17 17 16 16 16 16
24 23 22 22 23 24 23 23 23 21 21 21 21 21 25 24 24 24 24 24 23 22 22 21 21 20 19 19 19 18 18 18 18 18 18 17 17 17 17 17 17 17 17 17
23 22 21 21 22 23 23 23 23 23 22 22 21 22 25 25 24 24 24 24 23 23 22 21 21 20 20 19 19 19 18 18 18 18 18 17 17 17 17 17 17 17 17 17
23 23 22 21 22 23 23 23 24 23 22 22 22 23 24 24 24 24 24 24 23 23 22 21 21 20 20 19 19 19 18 18 18 18 18 17 17 17 17 17 17 16 17 17
23 23 23 24 24 24 24 24 24 23 23 22 23 23 24 24 24 24 23 24 23 23 22 21 21 20 20 20 19 19 19 18 18 18 18 17 17 17 17 17 17 16 16 16
23 23 23 23 24 24 24 24 24 24 24 24 23 23 25 24 24 24 23 23 23 23 22 21 21 20 20 20 19 19 19 19 18 18 18 18 17 17 17 17 17 17 16 16
23 22 22 22 24 24 23 24 24 24 24 24 23 24 25 24 24 24 23 23 22 22 22 21 21 21 20 20 20 19 19 19 18 18 18 18 17 17 17 17 17 17 16 16
23 22 22 22 22 21 23 25 25 24 24 25 25 25 25 24 24 23 23 22 22 22 21 21 21 21 20 20 20 19 19 19 18 18 18 18 18 17 17 17 17 17 16 16
23 22 22 22 21 22 24 24 25 24 24 25 25 25 24 24 23 23 22 22 22 21 21 21 21 21 20 20 20 20 19 19 18 18 18 18 18 17 17 17 17 16 16 16
23 23 22 21 21 21 23 25 25 24 23 24 25 24 24 24 22 22 22 22 21 21 21 21 20 20 20 20 20 20 19 19 18 18 18 18 18 17 17 17 17 16 16 16
22 22 21 21 21 22 23 24 24 23 23 24 24 24 24 24 23 22 21 21 21 20 20 20 20 20 20 20 20 19 19 19 18 18 18 18 17 17 17 17 16 16 16 16
22 21 21 21 21 21 23 23 23 23 24 24 24 23 23 22 22 21 21 20 20 20 19 19 19 19 19 19 19 19 19 18 18 18 18 17 17 17 17 16 16 16 16 16
23 23 22 22 22 23 23 23 23 23 23 23 23 23 22 22 21 21 20 20 19 19 19 19 19 19 18 18 19 18 18 18 18 18 17 17 17 16 16 16 16 15 15 15
23 24 23 22 22 23 23 23 23 22 22 22 22 22 21 21 21 20 20 19 19 18 18 18 18 18 18 18 18 18 18 17 17 17 17 16 16 16 16 15 15 15 15 15
22 23 23 22 22 22 22 22 22 22 22 21 21 21 21 21 20 20 19 19 18 18 18 18 18 18 18 17 17 17 17 17 17 17 16 16 16 15 15 15 15 15 15 14
22 22 21 21 22 22 21 21 21 21 21 21 21 20 20 20 20 19 19 18 18 17 17 17 17 17 17 17 17 17 17 17 17 16 16 15 15 15 15 15 14 14 14 14

GEFSCGP_850_meantemp_174.txt.gz
Temperature
21 18 18 19 19 20 20 20 19 19 20 19 19 18 18 18 18 18 18 19 19 19 19 19 19 19 18 18 18 18 17 17 17 17 16 16 16 16 16 16 16 16 16 16
18 18 20 20 21 21 20 19 19 19 20 20 18 18 18 18 18 18 18 18 19 19 19 19 19 19 18 18 18 18 18 17 17 17 16 16 16 16 16 16 16 16 16 15
19 20 21 21 20 20 20 19 19 19 19 19 19 18 18 18 18 19 19 19 19 19 19 19 19 19 19 18 18 18 18 17 17 17 17 16 16 16 16 16 16 15 15 15
20 21 21 21 20 20 19 20 20 19 18 17 18 17 17 17 18 18 19 19 19 19 19 19 19 19 19 18 18 18 18 17 17 17 17 16 16 16 16 16 16 15 15 15
20 20 20 20 20 20 19 20 20 19 18 17 18 17 17 17 18 18 18 19 19 19 19 19 19 19 19 18 18 18 18 17 17 17 17 17 16 16 16 16 16 15 15 15
20 21 21 20 21 20 20 19 18 17 17 17 18 17 17 17 18 18 19 19 19 19 19 19 19 19 19 18 18 18 18 17 17 17 17 17 16 16 16 16 16 16 16 15
20 20 21 21 20 20 19 17 16 17 16 17 18 18 18 18 19 19 19 19 20 20 19 19 19 19 19 18 18 18 18 17 17 17 17 17 17 16 16 16 16 16 16 16
18 18 20 20 20 19 18 17 17 17 17 17 18 17 18 20 20 20 20 20 20 20 20 20 19 19 19 18 18 18 18 17 17 17 17 17 17 16 16 16 16 16 16 16
18 18 20 20 21 19 18 17 17 17 17 17 17 18 19 20 19 19 19 19 19 20 20 20 19 19 19 19 18 18 18 18 17 17 17 17 17 16 16 16 16 16 16 16
19 18 19 20 20 20 19 18 16 16 16 17 18 18 18 18 18 18 19 19 19 20 20 19 19 19 19 19 19 18 18 18 18 17 17 17 17 17 16 16 16 16 16 16
19 18 19 19 19 19 19 18 17 16 16 16 17 18 19 19 19 18 19 19 20 20 20 20 19 19 19 19 19 18 18 18 18 17 17 17 17 17 17 16 16 16 16 16
18 16 17 18 19 20 19 19 17 16 16 16 16 17 20 19 19 19 19 20 20 20 20 20 20 19 19 19 19 19 18 18 18 17 17 17 17 17 17 17 16 16 16 16
18 17 17 17 18 19 19 19 18 16 16 15 16 18 19 19 19 20 20 20 20 20 20 20 19 19 19 19 19 19 18 18 18 18 17 17 17 17 17 17 16 16 16 16
18 16 17 17 17 18 19 20 19 17 16 16 17 18 19 19 19 19 20 20 20 20 20 20 20 19 19 19 19 19 19 18 18 18 17 17 17 17 17 17 16 16 16 16
17 17 18 18 19 19 20 20 20 19 18 17 18 18 19 19 19 19 20 20 20 20 20 20 20 19 19 19 19 19 19 18 18 18 17 17 17 17 17 17 16 16 16 16
17 17 18 18 19 19 20 20 20 20 20 19 19 19 20 20 20 20 20 20 19 19 20 20 20 20 19 19 19 19 19 18 18 18 18 17 17 17 17 17 16 16 16 16
16 17 17 17 18 19 19 20 20 20 20 20 19 19 19 19 19 20 20 20 20 20 20 20 20 20 20 20 19 19 19 19 18 18 18 17 17 17 17 17 16 16 16 16
16 16 15 16 18 18 19 19 20 20 20 20 20 19 19 20 20 21 21 21 20 20 20 20 20 20 20 20 20 19 19 18 18 18 18 17 17 17 17 17 16 16 16 16
16 16 15 15 16 17 19 20 20 20 20 20 20 19 20 20 20 20 20 21 21 21 20 20 20 20 20 20 20 19 19 19 18 18 18 18 17 17 17 17 16 16 16 16
16 16 15 15 17 17 18 20 21 20 19 20 20 19 20 20 17 18 20 21 21 20 20 20 20 20 20 20 19 19 19 19 18 18 18 18 17 17 17 17 16 16 16 16
16 15 15 15 16 17 18 20 20 19 19 20 21 20 20 19 19 20 20 20 20 20 20 20 20 20 19 19 19 19 19 18 18 18 18 17 17 17 17 16 16 16 16 15
15 15 15 15 16 17 19 19 19 19 20 21 21 21 21 21 21 20 20 20 20 20 20 19 19 19 19 19 19 19 18 18 18 18 17 17 17 17 16 16 16 16 15 15
15 15 15 15 16 18 20 20 21 21 21 21 21 21 21 20 20 20 20 20 20 19 19 19 19 19 18 18 18 18 18 18 18 17 17 17 17 16 16 16 16 15 15 15
15 16 15 15 16 18 20 21 21 21 21 21 21 21 21 20 20 20 19 19 19 19 19 18 18 18 18 18 18 18 18 18 17 17 17 17 16 16 16 16 15 15 15 14
15 15 15 15 16 18 19 20 20 20 20 20 21 21 21 20 20 20 19 19 19 18 18 18 18 18 18 18 18 18 17 17 17 17 17 16 16 16 15 15 15 15 14 14
15 15 15 15 17 16 18 19 20 20 20 20 20 20 20 20 20 19 19 19 18 18 18 18 18 18 18 17 17 17 17 17 17 16 16 16 16 15 15 15 14 14 14 13

GEFSCGP_850_meantemp_180.txt.gz
Temperature
19 17 17 18 18 19 18 18 18 18 18 18 17 17 16 17 17 17 17 18 18 18 18 18 18 18 17 17 17 17 17 17 16 16 16 16 16 16 16 15 15 15 15 15
17 17 18 19 19 19 18 18 17 17 18 18 17 17 16 16 16 17 17 18 18 18 18 18 18 18 17 17 17 17 17 17 16 16 16 16 16 16 15 15 15 15 15 15
18 18 19 19 19 18 18 17 17 17 17 17 17 17 16 16 17 17 17 18 18 18 18 18 18 18 18 17 17 17 17 17 16 16 16 16 16 16 16 15 15 15 15 15
18 19 19 19 19 18 18 18 18 18 17 16 17 16 16 16 16 16 17 17 18 18 18 18 18 18 18 18 17 17 17 17 16 16 16 16 16 16 16 15 15 15 15 15
18 19 19 19 19 18 18 18 18 17 17 16 16 16 16 16 16 16 16 17 18 18 18 18 18 18 18 18 17 17 17 17 16 16 16 16 16 16 16 15 15 15 15 15
18 19 19 19 18 18 18 17 16 15 15 16 16 16 16 15 16 16 17 17 18 18 18 18 18 18 18 18 17 17 17 17 16 16 16 16 16 16 16 16 15 15 15 15
18 18 18 19 18 18 17 16 16 16 15 15 16 16 16 17 17 17 17 18 18 18 18 18 18 18 18 18 17 17 17 17 16 16 16 16 16 16 16 16 15 15 15 15
17 17 18 18 18 17 17 17 16 16 15 15 16 16 17 18 18 18 18 18 18 18 18 18 19 18 18 18 18 17 17 17 16 16 16 16 16 16 16 16 15 15 15 15
16 17 18 19 18 18 17 16 16 15 16 15 15 16 17 18 17 17 18 18 18 19 19 19 19 18 18 18 18 18 17 17 17 16 16 16 16 16 16 16 16 15 15 15
17 17 18 18 18 17 17 15 14 15 16 16 16 16 16 17 17 17 17 18 18 18 19 19 19 19 18 18 18 18 17 17 17 17 16 16 16 16 16 16 16 16 15 15
17 17 17 18 18 17 16 16 15 14 15 15 16 16 18 17 17 17 17 18 18 18 19 19 19 19 18 18 18 18 18 17 17 17 16 16 16 16 16 16 16 16 15 15
16 15 16 17 17 18 17 16 15 16 15 14 15 16 18 17 17 17 18 19 19 19 19 19 19 19 18 18 18 18 18 17 17 17 17 16 16 16 16 16 16 16 15 15
16 15 16 16 17 17 17 16 16 15 14 14 15 17 17 17 17 18 18 19 19 19 19 19 19 19 19 18 18 18 18 18 17 17 17 16 16 16 16 16 16 16 16 15
16 15 16 16 16 16 17 17 16 15 15 14 15 16 17 17 17 17 18 19 19 19 19 19 19 19 19 19 18 18 18 18 17 17 17 16 16 16 16 16 16 16 16 16
16 16 16 16 17 17 18 17 16 16 16 15 16 16 17 17 17 18 18 19 19 19 19 19 19 19 19 19 19 18 18 18 17 17 17 17 16 16 16 16 16 16 16 16
14 15 16 17 17 17 17 18 17 17 17 16 17 17 17 18 18 18 18 18 19 19 19 19 19 19 19 19 19 19 18 18 18 17 17 17 16 16 16 16 16 16 16 16
14 15 15 15 16 17 17 18 17 17 17 17 17 18 17 17 17 18 18 19 19 20 19 19 19 19 19 19 19 19 19 18 18 17 17 17 16 16 16 16 16 16 16 16
14 14 13 14 16 17 17 17 18 18 18 17 18 17 18 18 19 19 19 20 20 20 20 20 20 20 19 19 19 19 18 18 18 18 17 17 17 17 16 16 16 16 16 15
14 14 13 13 15 16 17 18 17 18 18 18 17 17 18 18 18 18 20 20 20 20 20 20 20 20 19 19 19 19 18 18 18 18 17 17 17 17 16 16 16 16 15 15
13 13 13 13 15 16 17 18 18 18 18 18 17 17 17 17 16 17 20 20 20 20 20 20 20 19 19 19 19 18 18 18 18 18 17 17 17 17 16 16 16 15 15 15
13 13 13 13 14 15 16 17 18 17 17 19 18 18 18 17 18 20 20 20 20 20 20 20 20 19 19 19 18 18 18 18 18 18 17 17 17 16 16 16 16 15 15 15
13 13 13 13 14 15 17 16 17 17 19 19 19 19 19 19 19 19 20 20 20 20 20 20 19 19 19 18 18 18 18 18 18 17 17 17 17 16 16 16 16 15 15 15
13 14 13 14 15 16 17 18 19 19 19 19 19 19 19 19 19 19 19 19 19 19 19 19 19 19 18 18 18 18 18 17 17 17 17 17 16 16 16 16 15 15 15 15
12 13 12 13 14 16 17 18 19 19 19 20 20 19 19 19 19 19 19 19 19 19 19 19 19 18 18 18 18 18 17 17 17 17 16 16 16 16 15 15 15 15 14 14
13 12 12 13 14 16 18 18 19 19 19 19 19 19 19 19 19 19 19 19 19 19 19 18 18 18 18 17 17 17 17 17 17 16 16 16 16 15 15 15 15 14 14 14
11 12 13 14 15 15 17 18 18 18 19 19 19 19 19 19 19 19 19 18 18 18 18 18 18 17 17 17 17 17 16 16 16 16 16 16 15 15 15 14 14 14 13 13

GEFSCGP_850_meantemp_186.txt.gz
Temperature
22 23 23 23 23 23 23 23 22 22 22 22 22 21 21 20 20 20 19 19 20 19 19 18 18 17 17 17 17 17 17 16 16 16 16 16 16 15 15 15 15 15 15 15
23 23 23 23 23 22 22 22 22 22 22 22 22 22 22 21 20 20 20 20 20 19 19 18 18 18 18 17 17 17 17 16 16 16 16 16 16 15 15 15 15 15 15 15
23 22 22 22 22 22 22 22 22 22 21 22 22 22 22 21 20 20 19 20 20 19 19 19 18 18 18 17 17 17 17 16 16 16 16 16 16 15 15 15 15 15 15 15
22 22 22 22 22 22 22 22 22 21 21 22 22 22 22 22 21 21 20 20 20 19 19 19 18 18 18 17 17 17 17 16 16 16 16 16 16 16 15 15 15 15 15 15
22 22 22 22 22 22 22 22 22 21 22 22 22 22 23 22 21 22 21 20 20 19 19 18 18 18 18 17 17 17 17 16 16 16 16 16 16 15 15 15 15 15 15 15
22 22 22 22 22 21 21 21 21 21 22 21 22 22 22 23 22 22 22 21 20 19 19 18 18 18 17 17 17 17 17 16 16 16 16 16 15 15 15 15 15 15 15 15
22 22 22 21 21 21 22 22 21 21 21 22 22 22 22 23 23 23 22 21 20 20 19 18 18 18 17 17 17 17 17 17 16 16 16 16 16 16 15 15 15 15 15 15
22 22 22 22 22 22 22 22 21 21 21 22 22 22 23 23 22 22 21 21 20 20 19 19 18 18 17 17 17 17 17 17 16 16 16 16 16 16 16 15 15 15 15 15
22 22 22 21 22 22 22 22 22 22 22 21 22 23 23 23 23 22 21 21 20 20 19 19 18 18 18 17 17 17 17 17 17 16 16 16 16 16 16 15 15 15 15 15
23 22 22 21 21 21 22 22 22 21 21 21 22 22 23 23 23 22 22 21 20 20 19 19 18 18 18 18 17 17 17 17 17 16 16 16 16 16 16 16 15 15 15 15
23 22 21 21 21 22 21 21 22 22 21 21 21 22 23 23 23 23 22 21 20 20 19 18 18 18 18 18 17 17 17 17 17 16 16 16 16 16 16 16 15 15 15 15
22 22 22 22 22 21 22 22 22 21 21 21 21 22 24 23 23 22 22 21 20 20 19 18 18 18 17 17 17 17 17 17 17 17 16 16 16 16 16 16 15 15 15 15
21 22 21 21 21 21 21 21 22 22 22 21 21 22 24 23 23 22 22 21 20 19 19 18 18 18 18 18 18 18 17 17 17 17 16 16 16 16 16 15 15 15 15 15
21 22 22 21 22 21 21 21 21 22 21 22 22 23 24 23 23 22 21 21 20 20 19 19 18 18 18 18 18 18 18 17 17 17 16 16 16 16 16 15 15 15 15 15
21 22 22 22 21 21 21 21 21 21 22 22 22 23 23 23 23 22 21 20 20 20 19 19 18 18 18 18 18 18 18 17 17 17 16 16 16 16 16 16 15 15 15 15
21 21 21 21 21 21 21 21 21 21 22 22 22 23 24 23 22 21 21 20 20 20 19 19 19 18 18 18 18 18 18 17 17 17 16 16 16 16 16 16 15 15 15 15
21 21 21 21 21 21 21 22 21 21 22 22 22 23 23 23 22 21 21 20 20 19 19 19 19 18 18 18 18 18 18 17 17 17 17 16 16 16 16 16 16 16 15 15
20 21 21 20 20 20 22 22 22 22 22 23 23 23 22 22 21 20 20 20 19 19 19 18 18 18 18 18 18 18 18 17 17 17 17 17 16 16 16 16 16 16 15 15
20 20 20 20 20 20 21 21 21 21 22 23 22 22 22 21 21 21 20 19 19 19 19 18 18 18 18 18 18 18 17 17 17 17 17 17 16 16 16 16 16 16 15 15
19 20 20 19 19 19 21 21 20 21 21 22 22 22 21 21 23 22 20 19 19 18 18 18 19 18 18 18 18 17 17 17 17 17 17 16 16 16 16 16 16 15 15 15
19 19 19 19 19 20 21 20 20 20 22 21 21 21 21 21 22 21 19 19 19 18 19 19 19 18 18 18 18 17 17 17 17 17 17 16 16 16 16 16 15 15 15 15
19 19 19 19 19 20 20 20 20 21 21 20 20 20 20 20 19 19 19 19 19 18 19 19 18 18 18 18 18 18 17 17 17 17 17 16 16 16 16 16 15 15 15 15
20 20 20 20 20 20 19 19 19 19 19 19 19 19 19 18 18 18 18 18 18 18 18 18 18 18 18 18 18 17 17 17 17 17 16 16 16 16 16 15 15 15 15 14
19 18 19 19 20 19 18 18 18 18 18 18 18 18 18 18 18 17 18 18 18 18 18 18 18 18 17 17 17 17 17 17 16 16 16 16 16 15 15 15 15 14 14 14
18 18 18 19 19 18 18 17 17 17 17 18 18 18 17 17 17 17 17 18 18 18 18 18 17 17 17 17 17 17 17 16 16 16 15 15 15 15 15 15 14 14 14 14
17 18 18 19 19 19 18 17 17 17 17 17 17 17 17 17 17 17 17 17 17 17 17 17 17 17 17 16 17 16 16 16 16 15 15 15 15 15 14 14 14 14 13 13

GEFSCGP_850_meantemp_192.txt.gz
Temperature
25 25 24 25 25 25 25 25 24 24 25 24 23 23 23 22 22 22 21 21 21 20 20 20 19 19 19 19 18 18 18 17 17 17 17 17 17 16 16 16 16 16 16 16
25 24 25 26 26 25 25 24 24 24 25 24 23 23 23 23 22 22 22 21 21 21 20 20 19 19 19 19 18 18 18 17 17 17 17 17 17 16 16 16 16 16 16 16
24 25 26 26 25 25 25 24 24 24 24 25 23 22 23 23 23 22 22 22 21 21 21 20 20 19 19 19 18 18 18 18 17 17 17 17 17 16 16 16 16 16 16 16
25 25 25 25 25 25 24 25 24 24 23 23 24 22 22 23 22 22 22 22 22 21 21 20 20 19 19 19 18 18 18 18 17 17 17 17 16 16 16 16 16 16 16 16
24 25 25 24 24 25 24 25 24 24 23 23 23 22 22 23 22 22 22 22 22 21 21 20 20 19 19 18 18 18 18 18 17 17 17 17 16 16 16 16 16 16 16 16
25 25 25 25 25 25 25 24 24 24 23 22 23 23 22 23 23 22 22 22 22 21 21 20 20 19 19 18 18 18 18 17 17 17 17 17 16 16 16 16 16 16 16 16
24 25 25 25 24 24 24 23 22 22 21 22 24 24 23 24 24 23 23 22 22 21 21 20 20 19 19 18 18 18 17 17 17 17 17 17 16 16 16 16 16 16 16 16
24 23 24 25 24 24 24 23 22 21 22 23 24 23 24 25 25 24 23 22 22 21 21 20 20 19 19 18 18 17 17 17 17 17 17 17 17 16 16 16 16 16 16 16
24 24 25 25 25 25 24 23 24 23 23 23 23 24 24 25 24 24 23 22 22 21 21 20 20 19 19 18 18 17 17 17 17 17 17 17 17 17 17 16 16 16 16 16
25 24 24 25 25 25 24 24 23 22 21 21 23 23 22 22 23 23 23 23 22 21 21 20 20 19 19 18 18 18 17 17 17 17 17 17 17 17 17 17 16 16 16 16
25 24 24 24 23 23 24 23 23 23 23 21 21 22 24 23 23 23 23 23 22 22 21 20 20 19 19 18 18 18 18 17 17 17 17 17 17 17 17 17 16 16 16 16
25 24 23 24 25 25 24 24 23 22 22 22 21 22 25 24 24 23 23 23 22 22 21 20 20 19 19 19 18 18 18 18 17 17 17 17 17 17 16 16 16 16 16 16
24 23 23 23 23 24 24 24 24 24 23 22 21 22 24 24 24 23 23 23 22 22 21 20 20 19 19 19 18 18 18 18 18 17 17 17 17 17 16 16 16 16 16 16
23 23 23 22 23 23 23 23 24 23 22 22 22 23 24 24 24 23 23 23 22 22 21 20 20 19 19 19 19 18 18 18 17 17 17 17 17 16 16 16 16 16 16 16
23 23 24 24 24 24 24 23 24 23 23 23 23 23 23 23 23 23 23 22 22 22 21 20 20 19 19 19 19 19 18 18 18 17 17 17 17 16 16 16 16 16 16 16
23 23 23 23 24 24 24 24 24 23 24 24 23 23 24 24 24 23 23 22 22 21 21 20 20 19 19 19 19 19 18 18 18 17 17 17 17 16 16 16 16 16 16 16
23 22 22 22 23 23 22 23 23 23 24 24 23 23 24 23 23 23 23 22 22 21 21 20 20 19 19 19 19 19 18 18 18 17 17 17 17 16 16 16 16 16 16 15
22 22 22 22 22 21 23 25 24 24 24 24 24 24 24 24 23 23 22 22 21 21 20 20 20 19 19 19 19 19 18 18 18 17 17 17 17 16 16 16 16 15 15 15
23 22 21 21 21 21 23 24 24 23 23 24 24 24 24 23 23 22 22 21 21 21 20 20 20 19 19 19 19 18 18 18 18 17 17 17 16 16 16 16 16 15 15 15
23 22 21 20 20 20 22 24 24 23 22 23 23 23 23 23 21 21 21 21 21 20 20 19 19 19 19 19 19 18 18 18 18 17 17 17 16 16 16 16 15 15 15 15
21 21 20 20 20 21 23 23 23 21 21 22 22 22 22 22 21 21 20 20 20 20 19 19 19 19 19 19 19 18 18 18 18 17 17 16 16 16 16 15 15 15 15 15
21 20 20 20 20 20 22 22 22 21 22 22 21 21 21 20 20 20 20 20 20 20 19 19 19 19 19 18 18 18 18 18 17 17 17 16 16 16 15 15 15 15 15 15
21 21 21 21 20 21 21 21 21 21 21 21 20 20 20 19 19 19 19 19 19 19 19 19 19 18 18 18 18 18 18 18 17 17 16 16 16 15 15 15 15 15 14 14
21 22 21 21 21 21 21 21 20 20 20 20 19 19 19 19 19 19 19 19 19 19 18 18 18 18 18 17 17 17 17 17 17 16 16 16 15 15 15 15 15 14 14 14
20 21 20 20 21 21 20 20 20 20 19 19 19 19 19 18 18 18 18 18 18 18 18 18 18 17 17 17 17 17 17 17 16 16 16 15 15 15 14 14 14 14 14 14
20 20 19 19 20 20 20 19 19 19 19 18 18 18 18 18 18 18 18 18 18 17 17 17 17 17 17 16 16 16 16 16 16 16 15 15 15 14 14 14 14 13 13 13

GEFSCGP_850_meantemp_198.txt.gz
Temperature
22 19 19 20 20 21 21 21 20 20 21 20 19 19 19 19 19 19 18 18 19 19 19 19 19 19 18 18 18 18 17 17 17 17 17 16 16 16 16 16 16 16 16 16
19 20 21 22 22 22 21 20 20 20 21 21 19 19 19 19 19 19 19 19 19 19 19 19 19 19 18 18 18 17 17 17 17 17 17 16 16 16 16 16 16 16 16 16
20 21 22 22 22 21 21 20 20 20 20 20 19 18 18 19 19 19 19 19 19 19 19 19 19 18 18 18 18 17 17 17 17 17 17 16 16 16 16 16 16 16 16 16
21 22 22 22 22 21 20 21 21 21 19 18 19 17 18 18 18 18 19 19 19 19 19 19 18 18 18 18 18 17 17 17 17 17 17 16 16 16 16 16 16 16 16 16
20 21 22 21 22 22 21 21 21 20 19 18 18 17 17 17 18 18 18 19 19 19 19 19 19 19 18 18 18 17 17 17 17 17 17 16 16 16 16 16 16 16 16 15
21 22 22 22 22 22 21 20 19 18 17 17 18 17 17 17 18 18 18 19 19 19 19 19 19 19 18 18 18 17 17 17 17 17 16 16 16 16 16 16 16 16 16 15
20 21 22 22 21 21 20 17 17 17 16 17 18 18 18 18 19 19 19 19 19 19 19 19 19 18 18 18 18 18 17 17 17 17 16 16 16 16 16 16 16 16 16 16
19 19 21 22 21 20 20 18 17 17 17 17 18 18 18 19 20 20 20 19 19 19 19 19 19 19 18 18 18 18 17 17 17 17 16 16 16 16 16 16 16 16 16 16
18 19 21 22 22 21 20 18 18 17 18 17 18 18 19 19 19 19 19 19 19 19 19 19 19 19 18 18 18 18 17 17 17 17 17 16 16 16 16 16 16 16 16 16
19 19 20 21 22 21 20 19 17 17 17 17 18 18 17 18 18 18 18 19 19 19 19 19 19 19 18 18 18 18 17 17 17 17 17 17 17 16 16 16 16 16 16 16
19 18 19 20 20 20 20 19 18 16 16 16 17 17 19 18 18 18 18 19 19 19 19 19 19 19 19 18 18 18 17 17 17 17 17 17 17 16 16 16 16 16 16 16
19 17 17 19 20 21 20 20 18 17 17 16 16 17 20 19 19 19 19 19 19 19 19 19 19 19 19 18 18 18 18 17 17 17 17 17 17 16 16 16 16 16 16 16
19 17 17 18 18 19 20 20 19 17 16 16 16 18 19 19 19 19 19 19 19 19 19 19 19 19 19 18 18 18 18 17 17 17 17 17 17 16 16 16 16 16 16 16
19 17 17 17 18 18 19 20 20 18 16 17 17 18 19 18 18 19 19 19 19 19 19 19 19 19 19 18 18 18 18 17 17 17 17 17 17 17 16 16 16 16 16 16
17 17 18 18 19 19 19 20 20 19 18 17 18 18 18 18 18 19 19 19 19 19 19 19 19 19 19 18 18 18 18 18 17 17 17 17 17 16 16 16 16 16 16 16
16 17 18 18 19 19 19 19 20 20 19 19 19 18 19 20 19 19 19 19 18 19 19 19 19 19 18 18 18 18 18 18 17 17 17 17 17 16 16 16 16 16 16 16
16 16 16 16 18 19 18 19 19 19 19 19 18 18 18 18 18 18 18 19 18 18 19 19 19 18 18 18 18 18 18 18 17 17 17 17 17 16 16 16 16 16 15 15
16 15 14 15 17 17 18 19 20 19 19 19 18 18 19 19 19 19 19 19 18 18 18 18 18 18 18 18 18 18 18 18 17 17 17 17 17 16 16 16 16 16 15 15
16 16 15 14 16 17 18 19 19 19 18 18 18 18 19 19 18 18 19 19 18 18 18 18 19 19 19 18 18 18 18 17 17 17 17 17 16 16 16 16 15 15 15 15
15 15 15 14 16 16 17 19 20 19 18 18 18 18 18 18 16 16 18 18 18 18 18 18 18 18 18 18 18 18 17 17 17 17 17 17 16 16 16 16 15 15 15 15
16 15 15 14 15 15 17 19 19 17 17 18 18 18 18 18 17 19 18 18 18 18 18 18 18 18 18 18 18 18 17 17 17 17 17 16 16 16 16 16 15 15 15 15
15 14 14 14 15 15 18 18 17 17 19 19 19 19 19 19 19 19 18 18 18 18 18 18 18 18 18 18 18 18 17 17 17 17 17 16 16 16 15 15 15 15 15 14
14 15 14 14 15 17 19 19 19 19 19 19 19 19 19 18 18 18 18 18 18 18 18 18 18 18 18 18 18 17 17 17 17 17 16 16 16 16 15 15 15 14 14 14
14 15 14 14 15 17 18 19 19 19 19 19 19 19 19 18 18 18 17 17 17 17 17 17 17 17 17 17 17 17 17 17 17 17 16 16 16 15 15 15 14 14 14 14
14 14 14 14 15 16 17 18 19 19 19 19 18 18 18 18 17 17 17 17 17 17 17 17 17 17 17 17 17 17 17 17 16 16 16 16 15 15 15 14 14 14 14 14
13 14 14 14 16 15 17 18 18 18 18 18 18 17 17 17 17 17 17 17 17 17 16 16 16 16 16 16 16 16 16 16 16 16 16 15 15 15 14 14 14 13 13 13

GEFSCGP_850_meantemp_204.txt.gz
Temperature
20 18 18 19 19 20 19 19 18 19 19 18 18 17 17 17 17 17 17 17 17 18 18 18 18 18 18 17 17 17 17 16 16 16 16 16 16 16 16 15 15 15 15 15
18 18 19 20 20 19 19 18 18 18 19 18 17 17 17 17 17 17 17 17 17 18 18 18 18 18 17 17 17 17 17 16 16 16 16 16 16 16 16 15 15 15 15 15
19 20 20 20 20 19 19 19 18 18 18 18 18 17 17 17 17 17 17 17 17 18 18 17 17 18 17 17 17 17 17 16 16 16 16 16 16 16 16 15 15 15 15 15
19 20 20 20 20 19 19 19 19 19 17 16 17 16 16 16 16 16 17 17 17 17 17 18 17 17 17 17 17 17 17 16 16 16 16 16 16 16 16 15 15 15 15 15
19 20 20 20 20 20 19 19 18 18 17 16 16 16 16 15 16 16 16 17 17 18 18 18 18 18 17 17 17 17 17 16 16 16 16 16 16 16 16 15 15 15 15 15
19 20 20 20 20 19 19 18 17 15 15 16 16 16 16 15 16 17 17 17 18 18 18 18 18 18 17 17 17 17 17 16 16 16 16 16 16 16 16 16 15 15 15 15
19 19 20 20 19 19 18 17 16 16 15 16 16 16 16 17 17 17 17 17 18 18 18 18 18 18 17 17 17 17 17 17 16 16 16 16 16 16 16 16 15 15 15 15
18 18 19 19 19 19 18 17 16 16 16 15 16 16 17 17 17 18 18 18 18 18 18 18 18 18 18 17 17 17 17 17 16 16 16 16 16 16 16 16 16 15 15 15
17 18 19 20 19 19 18 16 16 15 16 16 16 16 17 18 17 17 17 17 18 18 18 18 18 18 18 18 17 17 17 17 16 16 16 16 16 16 16 16 16 15 15 15
17 18 18 19 19 18 18 16 15 15 16 16 16 16 16 17 17 17 17 17 17 18 18 18 18 18 18 18 18 17 17 17 16 16 16 16 16 16 16 16 16 15 15 15
17 17 17 18 18 18 17 17 15 14 15 15 16 16 17 16 16 16 16 17 18 18 18 18 18 18 18 18 18 17 17 17 16 16 16 16 16 16 16 16 16 15 15 15
16 15 16 17 18 18 18 17 15 16 15 14 15 16 17 16 17 17 17 18 18 18 18 18 18 18 18 18 18 17 17 17 17 17 16 16 16 16 16 16 16 15 15 15
16 15 15 16 17 17 18 17 16 14 14 13 15 16 17 16 16 17 17 17 18 18 18 18 18 18 18 18 18 17 17 17 17 17 17 16 16 16 16 16 16 15 15 15
16 15 15 16 16 16 17 17 16 15 14 14 15 16 17 16 16 16 17 17 17 17 17 18 18 18 18 18 18 17 17 17 17 17 17 16 16 16 16 16 16 15 15 15
15 15 16 16 17 17 17 17 16 16 15 15 16 16 16 16 16 17 17 17 17 17 17 17 17 18 17 17 17 17 17 17 17 17 17 16 16 16 16 16 15 15 15 15
14 15 16 16 17 17 17 17 17 17 16 16 16 16 16 17 17 17 17 16 16 17 17 17 17 17 17 17 17 17 17 17 17 16 16 16 16 16 16 16 15 15 15 15
13 14 15 15 16 17 16 17 17 17 16 16 16 16 16 16 16 17 17 17 17 17 17 17 17 17 17 17 17 17 17 17 16 16 16 16 16 16 16 16 15 15 15 15
13 13 12 13 15 16 16 17 17 17 16 16 16 16 16 17 17 18 18 18 17 17 17 17 17 17 17 17 17 17 17 17 16 16 16 16 16 16 16 15 15 15 15 15
13 13 12 12 14 15 16 17 16 16 17 16 16 16 16 17 17 17 18 18 18 17 17 17 17 17 17 17 17 17 17 16 16 16 16 16 16 16 15 15 15 15 15 14
12 12 12 12 14 15 16 17 17 17 16 17 16 16 16 16 14 16 18 18 17 17 17 17 17 17 17 17 17 17 16 16 16 16 16 16 16 16 15 15 15 15 14 14
13 12 12 12 13 14 15 16 17 16 16 17 17 16 16 16 16 18 18 18 17 17 17 17 17 17 17 17 16 16 16 16 16 16 16 16 16 15 15 15 15 14 14 14
13 12 12 11 13 14 16 15 15 16 18 18 18 17 17 17 17 17 17 17 17 17 17 17 17 17 17 17 16 16 16 16 16 16 16 16 15 15 15 15 15 14 14 14
12 13 12 12 14 15 16 17 18 18 18 18 18 18 17 17 17 17 17 17 17 17 17 17 17 17 17 16 16 16 16 16 16 16 16 16 15 15 15 15 14 14 14 14
11 12 11 12 13 15 16 17 17 18 18 18 18 18 17 17 17 17 17 17 17 16 16 16 16 16 16 16 16 16 16 16 16 16 16 15 15 15 15 14 14 14 14 14
12 11 11 12 13 15 16 17 17 17 17 17 18 18 17 17 17 17 17 16 16 16 16 16 16 16 16 16 16 16 16 16 16 16 15 15 15 15 14 14 14 14 14 13
11 11 12 13 14 14 16 17 17 17 17 17 17 17 17 17 17 17 16 16 16 16 15 15 15 15 15 15 15 15 15 15 15 15 15 15 15 14 14 14 14 13 13 13